Time,TemperatureF,DewpointF,PressureIn,WindDirection,WindDirectionDegrees,WindSpeedMPH,WindSpeedGustMPH,Humidity,HourlyPrecipIn,Conditions,Clouds,dailyrainin,SoftwareType,DateUTC
2013-06-16 00:01:00,67.9,63.2,30.06,SW,225,0.0,0.0,85,0.00,,,0.00,Wunderground v.1.15,2013-06-16 04:01:00,
2013-06-16 00:02:00,67.9,63.2,30.06,SW,225,0.0,0.0,85,0.00,,,0.00,Wunderground v.1.15,2013-06-16 04:02:00,
2013-06-16 00:04:00,67.8,63.1,30.06,SW,225,0.0,0.0,85,0.00,,,0.00,Wunderground v.1.15,2013-06-16 04:04:00,
2013-06-16 00:06:00,67.7,63.0,30.06,SW,225,0.0,0.0,85,0.00,,,0.00,Wunderground v.1.15,2013-06-16 04:06:00,
2013-06-16 00:09:00,67.5,62.8,30.07,SW,225,0.0,0.0,85,0.00,,,0.00,Wunderground v.1.15,2013-06-16 04:09:00,
2013-06-16 00:11:00,67.4,62.7,30.07,SW,225,0.0,0.0,85,0.00,,,0.00,Wunderground v.1.15,2013-06-16 04:11:00,
2013-06-16 00:13:00,67.4,62.7,30.07,SW,225,0.0,0.0,85,0.00,,,0.00,Wunderground v.1.15,2013-06-16 04:13:00,
2013-06-16 00:14:00,67.3,62.6,30.07,SW,225,0.0,0.0,85,0.00,,,0.00,Wunderground v.1.15,2013-06-16 04:14:00,
2013-06-16 00:17:00,67.2,62.5,30.07,SW,225,0.0,0.0,85,0.00,,,0.00,Wunderground v.1.15,2013-06-16 04:17:00,
2013-06-16 00:18:00,67.2,62.5,30.07,SW,225,0.0,0.0,85,0.00,,,0.00,Wunderground v.1.15,2013-06-16 04:18:00,
2013-06-16 00:20:00,67.1,62.8,30.07,SW,225,0.0,0.0,86,0.00,,,0.00,Wunderground v.1.15,2013-06-16 04:20:00,
2013-06-16 00:22:00,67.1,62.8,30.07,SW,225,0.0,0.0,86,0.00,,,0.00,Wunderground v.1.15,2013-06-16 04:22:00,
2013-06-16 00:26:00,67.0,62.7,30.07,SW,226,0.0,0.0,86,0.00,,,0.00,Wunderground v.1.15,2013-06-16 04:26:00,
2013-06-16 00:27:00,67.0,62.7,30.07,SW,225,0.0,0.0,86,0.00,,,0.00,Wunderground v.1.15,2013-06-16 04:27:00,
2013-06-16 00:28:00,67.0,62.7,30.07,SW,225,0.0,0.0,86,0.00,,,0.00,Wunderground v.1.15,2013-06-16 04:28:00,
2013-06-16 00:31:00,66.9,62.6,30.07,SW,225,0.0,0.0,86,0.00,,,0.00,Wunderground v.1.15,2013-06-16 04:31:00,
2013-06-16 00:33:00,66.8,62.5,30.07,SW,225,0.0,0.0,86,0.00,,,0.00,Wunderground v.1.15,2013-06-16 04:33:00,
2013-06-16 00:34:00,66.8,62.5,30.07,SW,225,0.0,0.0,86,0.00,,,0.00,Wunderground v.1.15,2013-06-16 04:34:00,
2013-06-16 00:37:00,66.7,62.4,30.07,SW,235,0.0,0.0,86,0.00,,,0.00,Wunderground v.1.15,2013-06-16 04:37:00,
2013-06-16 00:39:00,66.7,62.4,30.07,SW,235,0.0,0.0,86,0.00,,,0.00,Wunderground v.1.15,2013-06-16 04:39:00,
2013-06-16 00:40:00,66.7,62.7,30.07,SW,234,0.0,0.0,87,0.00,,,0.00,Wunderground v.1.15,2013-06-16 04:40:00,
2013-06-16 00:42:00,66.6,62.3,30.07,SW,235,0.0,0.0,86,0.00,,,0.00,Wunderground v.1.15,2013-06-16 04:42:00,
2013-06-16 00:45:00,66.6,62.6,30.07,SW,235,0.0,0.0,87,0.00,,,0.00,Wunderground v.1.15,2013-06-16 04:45:00,
2013-06-16 00:46:00,66.5,62.5,30.07,SW,235,0.0,0.0,87,0.00,,,0.00,Wunderground v.1.15,2013-06-16 04:46:00,
2013-06-16 00:47:00,66.5,62.5,30.07,SW,235,0.0,0.0,87,0.00,,,0.00,Wunderground v.1.15,2013-06-16 04:47:00,
2013-06-16 00:50:00,66.4,62.4,30.07,SW,235,0.0,0.0,87,0.00,,,0.00,Wunderground v.1.15,2013-06-16 04:50:00,
2013-06-16 00:51:00,66.4,62.4,30.07,SW,235,0.0,0.0,87,0.00,,,0.00,Wunderground v.1.15,2013-06-16 04:51:00,
2013-06-16 00:52:00,66.4,62.4,30.06,SW,235,0.0,0.0,87,0.00,,,0.00,Wunderground v.1.15,2013-06-16 04:52:00,
2013-06-16 00:54:00,66.4,62.4,30.06,SW,235,0.0,0.0,87,0.00,,,0.00,Wunderground v.1.15,2013-06-16 04:54:00,
2013-06-16 00:57:00,66.4,62.4,30.06,SW,235,0.0,0.0,87,0.00,,,0.00,Wunderground v.1.15,2013-06-16 04:57:00,
2013-06-16 00:59:00,66.4,62.7,30.07,SW,235,0.0,0.0,88,0.00,,,0.00,Wunderground v.1.15,2013-06-16 04:59:00,
2013-06-16 01:02:00,66.5,62.8,30.07,SW,235,0.0,0.0,88,0.00,,,0.00,Wunderground v.1.15,2013-06-16 05:02:00,
2013-06-16 01:03:00,66.5,62.8,30.06,SW,235,0.0,0.0,88,0.00,,,0.00,Wunderground v.1.15,2013-06-16 05:03:00,
2013-06-16 01:05:00,66.5,62.5,30.06,SW,235,0.0,0.0,87,0.00,,,0.00,Wunderground v.1.15,2013-06-16 05:05:00,
2013-06-16 01:07:00,66.6,62.6,30.06,SW,235,0.0,0.0,87,0.00,,,0.00,Wunderground v.1.15,2013-06-16 05:07:00,
2013-06-16 01:09:00,66.6,62.6,30.06,SW,236,0.0,0.0,87,0.00,,,0.00,Wunderground v.1.15,2013-06-16 05:09:00,
2013-06-16 01:14:00,67.4,62.7,30.06,SW,233,0.0,1.0,85,0.00,,,0.00,Wunderground v.1.15,2013-06-16 05:14:00,
2013-06-16 01:15:00,67.6,62.6,30.06,SW,232,0.0,1.0,84,0.00,,,0.00,Wunderground v.1.15,2013-06-16 05:15:00,
2013-06-16 01:16:00,67.8,62.8,30.06,SW,232,0.0,1.0,84,0.00,,,0.00,Wunderground v.1.15,2013-06-16 05:16:00,
2013-06-16 01:17:00,67.8,62.4,30.06,SW,232,0.0,1.0,83,0.00,,,0.00,Wunderground v.1.15,2013-06-16 05:17:00,
2013-06-16 01:18:00,68.0,62.6,30.06,SW,235,0.0,1.0,83,0.00,,,0.00,Wunderground v.1.15,2013-06-16 05:18:00,
2013-06-16 01:23:00,68.5,62.4,30.06,SW,229,0.0,2.0,81,0.00,,,0.00,Wunderground v.1.15,2013-06-16 05:23:00,
2013-06-16 01:24:00,68.6,62.5,30.06,SW,224,1.0,2.0,81,0.00,,,0.00,Wunderground v.1.15,2013-06-16 05:24:00,
2013-06-16 01:25:00,68.7,62.6,30.06,SW,229,1.0,2.0,81,0.00,,,0.00,Wunderground v.1.15,2013-06-16 05:25:00,
2013-06-16 01:26:00,68.7,62.3,30.06,SW,235,1.0,2.0,80,0.00,,,0.00,Wunderground v.1.15,2013-06-16 05:26:00,
2013-06-16 01:28:00,68.8,62.4,30.06,SW,229,0.0,2.0,80,0.00,,,0.00,Wunderground v.1.15,2013-06-16 05:28:00,
2013-06-16 01:32:00,69.2,63.1,30.06,SW,233,1.0,2.0,81,0.00,,,0.00,Wunderground v.1.15,2013-06-16 05:32:00,
2013-06-16 01:33:00,69.2,62.4,30.06,SW,235,2.0,2.0,79,0.00,,,0.00,Wunderground v.1.15,2013-06-16 05:33:00,
2013-06-16 01:34:00,69.2,62.8,30.06,SW,235,0.0,2.0,80,0.00,,,0.00,Wunderground v.1.15,2013-06-16 05:34:00,
2013-06-16 01:35:00,69.2,62.8,30.06,SW,235,1.0,2.0,80,0.00,,,0.00,Wunderground v.1.15,2013-06-16 05:35:00,
2013-06-16 01:38:00,69.2,62.4,30.06,WSW,238,2.0,2.0,79,0.00,,,0.00,Wunderground v.1.15,2013-06-16 05:38:00,
2013-06-16 01:39:00,69.2,62.4,30.06,SW,235,2.0,2.0,79,0.00,,,0.00,Wunderground v.1.15,2013-06-16 05:39:00,
2013-06-16 01:41:00,69.2,62.4,30.06,SW,235,1.0,2.0,79,0.00,,,0.00,Wunderground v.1.15,2013-06-16 05:41:00,
2013-06-16 01:42:00,69.2,62.4,30.06,SW,231,1.0,2.0,79,0.00,,,0.00,Wunderground v.1.15,2013-06-16 05:42:00,
2013-06-16 01:45:00,69.2,62.8,30.06,SW,236,1.0,2.0,80,0.00,,,0.00,Wunderground v.1.15,2013-06-16 05:45:00,
2013-06-16 01:46:00,69.2,62.8,30.06,SW,236,1.0,2.0,80,0.00,,,0.00,Wunderground v.1.15,2013-06-16 05:46:00,
2013-06-16 01:47:00,69.2,62.8,30.06,SW,236,1.0,2.0,80,0.00,,,0.00,Wunderground v.1.15,2013-06-16 05:47:00,
2013-06-16 01:48:00,69.1,62.7,30.06,SW,229,2.0,2.0,80,0.00,,,0.00,Wunderground v.1.15,2013-06-16 05:48:00,
2013-06-16 01:51:00,69.1,62.7,30.06,WSW,238,0.0,1.0,80,0.00,,,0.00,Wunderground v.1.15,2013-06-16 05:51:00,
2013-06-16 01:53:00,69.0,62.6,30.06,WSW,238,0.0,1.0,80,0.00,,,0.00,Wunderground v.1.15,2013-06-16 05:53:00,
2013-06-16 01:54:00,68.9,62.8,30.06,WSW,238,0.0,1.0,81,0.00,,,0.00,Wunderground v.1.15,2013-06-16 05:54:00,
2013-06-16 01:57:00,68.7,62.6,30.06,WSW,237,0.0,1.0,81,0.00,,,0.00,Wunderground v.1.15,2013-06-16 05:57:00,
2013-06-16 01:59:00,68.6,62.5,30.06,WSW,238,0.0,1.0,81,0.00,,,0.00,Wunderground v.1.15,2013-06-16 05:59:00,
2013-06-16 02:00:00,68.5,62.8,30.06,WSW,238,0.0,0.0,82,0.00,,,0.00,Wunderground v.1.15,2013-06-16 06:00:00,
2013-06-16 02:02:00,68.4,62.7,30.06,WSW,238,0.0,0.0,82,0.00,,,0.00,Wunderground v.1.15,2013-06-16 06:02:00,
2013-06-16 02:04:00,68.2,62.5,30.06,WSW,238,0.0,0.0,82,0.00,,,0.00,Wunderground v.1.15,2013-06-16 06:04:00,
2013-06-16 02:05:00,68.1,62.4,30.06,WSW,238,0.0,0.0,82,0.00,,,0.00,Wunderground v.1.15,2013-06-16 06:05:00,
2013-06-16 02:07:00,68.0,62.6,30.06,WSW,238,0.0,0.0,83,0.00,,,0.00,Wunderground v.1.15,2013-06-16 06:07:00,
2013-06-16 02:09:00,67.8,62.4,30.06,WSW,238,0.0,0.0,83,0.00,,,0.00,Wunderground v.1.15,2013-06-16 06:09:00,
2013-06-16 02:10:00,67.8,62.4,30.06,WSW,238,0.0,0.0,83,0.00,,,0.00,Wunderground v.1.15,2013-06-16 06:10:00,
2013-06-16 02:12:00,67.8,62.8,30.06,WSW,238,0.0,0.0,84,0.00,,,0.00,Wunderground v.1.15,2013-06-16 06:12:00,
2013-06-16 02:14:00,67.8,62.4,30.06,WSW,238,0.0,0.0,83,0.00,,,0.00,Wunderground v.1.15,2013-06-16 06:14:00,
2013-06-16 02:15:00,67.8,62.8,30.06,WSW,243,0.0,0.0,84,0.00,,,0.00,Wunderground v.1.15,2013-06-16 06:15:00,
2013-06-16 02:16:00,67.8,62.4,30.06,WSW,243,0.0,0.0,83,0.00,,,0.00,Wunderground v.1.15,2013-06-16 06:16:00,
2013-06-16 02:17:00,67.8,62.4,30.06,WSW,240,0.0,0.0,83,0.00,,,0.00,Wunderground v.1.15,2013-06-16 06:17:00,
2013-06-16 02:19:00,67.9,62.5,30.05,WSW,243,0.0,0.0,83,0.00,,,0.00,Wunderground v.1.15,2013-06-16 06:19:00,
2013-06-16 02:20:00,67.8,62.4,30.06,WSW,243,0.0,0.0,83,0.00,,,0.00,Wunderground v.1.15,2013-06-16 06:20:00,
2013-06-16 02:21:00,67.9,62.5,30.06,WSW,243,0.0,0.0,83,0.00,,,0.00,Wunderground v.1.15,2013-06-16 06:21:00,
2013-06-16 02:22:00,67.8,62.4,30.05,SW,235,2.0,2.0,83,0.00,,,0.00,Wunderground v.1.15,2013-06-16 06:22:00,
2013-06-16 02:24:00,67.9,62.5,30.06,SW,232,2.0,2.0,83,0.00,,,0.00,Wunderground v.1.15,2013-06-16 06:24:00,
2013-06-16 02:26:00,67.9,62.5,30.06,SW,231,1.0,2.0,83,0.00,,,0.00,Wunderground v.1.15,2013-06-16 06:26:00,
2013-06-16 02:27:00,67.9,62.5,30.06,SW,226,0.0,2.0,83,0.00,,,0.00,Wunderground v.1.15,2013-06-16 06:27:00,
2013-06-16 02:29:00,67.9,62.5,30.05,SW,233,1.0,2.0,83,0.00,,,0.00,Wunderground v.1.15,2013-06-16 06:29:00,
2013-06-16 02:31:00,68.0,62.6,30.06,SW,232,0.0,2.0,83,0.00,,,0.00,Wunderground v.1.15,2013-06-16 06:31:00,
2013-06-16 02:32:00,68.0,62.6,30.06,SW,235,1.0,2.0,83,0.00,,,0.00,Wunderground v.1.15,2013-06-16 06:32:00,
2013-06-16 02:35:00,68.0,62.6,30.06,SW,235,0.0,2.0,83,0.00,,,0.00,Wunderground v.1.15,2013-06-16 06:35:00,
2013-06-16 02:36:00,68.0,62.6,30.06,SW,233,0.0,2.0,83,0.00,,,0.00,Wunderground v.1.15,2013-06-16 06:36:00,
2013-06-16 02:37:00,68.0,62.6,30.06,SW,232,2.0,2.0,83,0.00,,,0.00,Wunderground v.1.15,2013-06-16 06:37:00,
2013-06-16 02:40:00,68.0,62.6,30.06,SW,231,0.0,1.0,83,0.00,,,0.00,Wunderground v.1.15,2013-06-16 06:40:00,
2013-06-16 02:41:00,68.0,62.3,30.06,SW,231,0.0,1.0,82,0.00,,,0.00,Wunderground v.1.15,2013-06-16 06:41:00,
2013-06-16 02:42:00,68.0,62.6,30.06,SW,231,0.0,1.0,83,0.00,,,0.00,Wunderground v.1.15,2013-06-16 06:42:00,
2013-06-16 02:43:00,68.0,62.6,30.06,SW,231,0.0,1.0,83,0.00,,,0.00,Wunderground v.1.15,2013-06-16 06:43:00,
2013-06-16 02:45:00,67.9,62.5,30.05,SW,231,0.0,1.0,83,0.00,,,0.00,Wunderground v.1.15,2013-06-16 06:45:00,
2013-06-16 02:46:00,67.9,62.5,30.05,SW,231,0.0,1.0,83,0.00,,,0.00,Wunderground v.1.15,2013-06-16 06:46:00,
2013-06-16 02:47:00,67.9,62.5,30.05,SW,230,0.0,1.0,83,0.00,,,0.00,Wunderground v.1.15,2013-06-16 06:47:00,
2013-06-16 02:48:00,67.9,62.5,30.05,SW,231,0.0,1.0,83,0.00,,,0.00,Wunderground v.1.15,2013-06-16 06:48:00,
2013-06-16 02:50:00,67.8,62.8,30.05,SW,231,0.0,0.0,84,0.00,,,0.00,Wunderground v.1.15,2013-06-16 06:50:00,
2013-06-16 02:51:00,67.8,62.8,30.05,SW,231,0.0,0.0,84,0.00,,,0.00,Wunderground v.1.15,2013-06-16 06:51:00,
2013-06-16 02:52:00,67.7,62.7,30.05,SW,231,0.0,0.0,84,0.00,,,0.00,Wunderground v.1.15,2013-06-16 06:52:00,
2013-06-16 02:53:00,67.7,62.7,30.05,SW,231,0.0,0.0,84,0.00,,,0.00,Wunderground v.1.15,2013-06-16 06:53:00,
2013-06-16 02:55:00,67.5,62.5,30.04,SW,231,0.0,0.0,84,0.00,,,0.00,Wunderground v.1.15,2013-06-16 06:55:00,
2013-06-16 02:56:00,67.5,62.5,30.04,SW,230,0.0,0.0,84,0.00,,,0.00,Wunderground v.1.15,2013-06-16 06:56:00,
2013-06-16 02:57:00,67.4,62.4,30.04,SW,231,0.0,0.0,84,0.00,,,0.00,Wunderground v.1.15,2013-06-16 06:57:00,
2013-06-16 02:58:00,67.4,62.4,30.04,SW,236,0.0,0.0,84,0.00,,,0.00,Wunderground v.1.15,2013-06-16 06:58:00,
2013-06-16 03:01:00,67.4,62.4,30.04,SW,229,1.0,1.0,84,0.00,,,0.00,Wunderground v.1.15,2013-06-16 07:01:00,
2013-06-16 03:02:00,67.4,62.4,30.04,SW,235,1.0,1.0,84,0.00,,,0.00,Wunderground v.1.15,2013-06-16 07:02:00,
2013-06-16 03:03:00,67.5,62.5,30.05,SSW,210,2.0,2.0,84,0.00,,,0.00,Wunderground v.1.15,2013-06-16 07:03:00,
2013-06-16 03:06:00,67.6,62.6,30.04,SW,232,1.0,2.0,84,0.00,,,0.00,Wunderground v.1.15,2013-06-16 07:06:00,
2013-06-16 03:07:00,67.6,62.3,30.04,SW,232,0.0,2.0,83,0.00,,,0.00,Wunderground v.1.15,2013-06-16 07:07:00,
2013-06-16 03:09:00,67.6,62.3,30.04,SW,233,0.0,2.0,83,0.00,,,0.00,Wunderground v.1.15,2013-06-16 07:09:00,
2013-06-16 03:11:00,67.7,62.3,30.05,SW,214,0.0,1.0,83,0.00,,,0.00,Wunderground v.1.15,2013-06-16 07:11:00,
2013-06-16 03:12:00,67.8,62.4,30.04,SW,226,3.0,3.0,83,0.00,,,0.00,Wunderground v.1.15,2013-06-16 07:12:00,
2013-06-16 03:14:00,67.9,62.5,30.04,SW,215,3.0,5.0,83,0.00,,,0.00,Wunderground v.1.15,2013-06-16 07:14:00,
2013-06-16 03:16:00,68.0,62.3,30.04,SSW,201,2.0,5.0,82,0.00,,,0.00,Wunderground v.1.15,2013-06-16 07:16:00,
2013-06-16 03:17:00,68.0,62.3,30.04,SW,221,1.0,5.0,82,0.00,,,0.00,Wunderground v.1.15,2013-06-16 07:17:00,
2013-06-16 03:19:00,68.2,62.5,30.04,WSW,238,1.0,5.0,82,0.00,,,0.00,Wunderground v.1.15,2013-06-16 07:19:00,
2013-06-16 03:20:00,68.2,62.5,30.04,WSW,238,2.0,2.0,82,0.00,,,0.00,Wunderground v.1.15,2013-06-16 07:20:00,
2013-06-16 03:21:00,68.3,62.6,30.04,SW,231,1.0,4.0,82,0.00,,,0.00,Wunderground v.1.15,2013-06-16 07:21:00,
2013-06-16 03:22:00,68.3,62.6,30.04,SW,231,1.0,4.0,82,0.00,,,0.00,Wunderground v.1.15,2013-06-16 07:22:00,
2013-06-16 03:24:00,68.3,62.6,30.04,SW,231,1.0,4.0,82,0.00,,,0.00,Wunderground v.1.15,2013-06-16 07:24:00,
2013-06-16 03:25:00,68.3,62.6,30.04,SW,231,0.0,4.0,82,0.00,,,0.00,Wunderground v.1.15,2013-06-16 07:25:00,
2013-06-16 03:26:00,68.3,62.6,30.04,SW,231,1.0,4.0,82,0.00,,,0.00,Wunderground v.1.15,2013-06-16 07:26:00,
2013-06-16 03:27:00,68.3,62.6,30.04,SW,231,1.0,4.0,82,0.00,,,0.00,Wunderground v.1.15,2013-06-16 07:27:00,
2013-06-16 03:29:00,68.3,62.6,30.05,SSW,212,1.0,4.0,82,0.00,,,0.00,Wunderground v.1.15,2013-06-16 07:29:00,
2013-06-16 03:30:00,68.3,62.6,30.05,WSW,250,2.0,4.0,82,0.00,,,0.00,Wunderground v.1.15,2013-06-16 07:30:00,
2013-06-16 03:31:00,68.4,62.7,30.04,SW,229,1.0,4.0,82,0.00,,,0.00,Wunderground v.1.15,2013-06-16 07:31:00,
2013-06-16 03:32:00,68.4,62.7,30.04,SW,222,0.0,4.0,82,0.00,,,0.00,Wunderground v.1.15,2013-06-16 07:32:00,
2013-06-16 03:33:00,68.4,62.7,30.04,SW,232,1.0,4.0,82,0.00,,,0.00,Wunderground v.1.15,2013-06-16 07:33:00,
2013-06-16 03:35:00,68.4,62.7,30.04,SW,214,1.0,4.0,82,0.00,,,0.00,Wunderground v.1.15,2013-06-16 07:35:00,
2013-06-16 03:36:00,68.4,62.7,30.05,SW,235,2.0,4.0,82,0.00,,,0.00,Wunderground v.1.15,2013-06-16 07:36:00,
2013-06-16 03:37:00,68.4,62.7,30.05,SW,233,1.0,4.0,82,0.00,,,0.00,Wunderground v.1.15,2013-06-16 07:37:00,
2013-06-16 03:39:00,68.4,62.7,30.05,WSW,240,2.0,4.0,82,0.00,,,0.00,Wunderground v.1.15,2013-06-16 07:39:00,
2013-06-16 03:40:00,68.4,62.7,30.05,WSW,256,1.0,2.0,82,0.00,,,0.00,Wunderground v.1.15,2013-06-16 07:40:00,
2013-06-16 03:42:00,68.4,62.7,30.05,WSW,253,3.0,7.0,82,0.00,,,0.00,Wunderground v.1.15,2013-06-16 07:42:00,
2013-06-16 03:43:00,68.4,62.7,30.05,SSW,207,3.0,7.0,82,0.00,,,0.00,Wunderground v.1.15,2013-06-16 07:43:00,
2013-06-16 03:44:00,68.4,62.7,30.05,SW,236,2.0,7.0,82,0.00,,,0.00,Wunderground v.1.15,2013-06-16 07:44:00,
2013-06-16 03:45:00,68.4,62.7,30.05,SW,235,3.0,7.0,82,0.00,,,0.00,Wunderground v.1.15,2013-06-16 07:45:00,
2013-06-16 03:46:00,68.4,62.7,30.05,SSW,211,2.0,7.0,82,0.00,,,0.00,Wunderground v.1.15,2013-06-16 07:46:00,
2013-06-16 03:47:00,68.4,62.7,30.05,SW,215,1.0,7.0,82,0.00,,,0.00,Wunderground v.1.15,2013-06-16 07:47:00,
2013-06-16 03:49:00,68.4,62.7,30.05,SW,235,2.0,7.0,82,0.00,,,0.00,Wunderground v.1.15,2013-06-16 07:49:00,
2013-06-16 03:51:00,68.4,63.0,30.05,SW,224,0.0,2.0,83,0.00,,,0.00,Wunderground v.1.15,2013-06-16 07:51:00,
2013-06-16 03:52:00,68.4,63.0,30.05,WSW,257,1.0,2.0,83,0.00,,,0.00,Wunderground v.1.15,2013-06-16 07:52:00,
2013-06-16 03:54:00,68.3,62.9,30.05,SW,215,1.0,3.0,83,0.00,,,0.00,Wunderground v.1.15,2013-06-16 07:54:00,
2013-06-16 03:56:00,68.3,62.9,30.05,SW,218,1.0,3.0,83,0.00,,,0.00,Wunderground v.1.15,2013-06-16 07:56:00,
2013-06-16 03:57:00,68.2,62.8,30.05,SW,235,3.0,3.0,83,0.00,,,0.00,Wunderground v.1.15,2013-06-16 07:57:00,
2013-06-16 03:59:00,68.2,62.8,30.06,WSW,253,2.0,4.0,83,0.00,,,0.00,Wunderground v.1.15,2013-06-16 07:59:00,
2013-06-16 04:02:00,68.2,62.8,30.06,West,266,1.0,4.0,83,0.00,,,0.00,Wunderground v.1.15,2013-06-16 08:02:00,
2013-06-16 04:05:00,68.1,63.1,30.06,SW,229,0.0,4.0,84,0.00,,,0.00,Wunderground v.1.15,2013-06-16 08:05:00,
2013-06-16 04:07:00,68.0,63.0,30.06,SW,217,3.0,4.0,84,0.00,,,0.00,Wunderground v.1.15,2013-06-16 08:07:00,
2013-06-16 04:08:00,68.0,63.0,30.06,WSW,250,2.0,4.0,84,0.00,,,0.00,Wunderground v.1.15,2013-06-16 08:08:00,
2013-06-16 04:10:00,67.9,62.9,30.06,West,264,3.0,3.0,84,0.00,,,0.00,Wunderground v.1.15,2013-06-16 08:10:00,
2013-06-16 04:12:00,67.9,62.9,30.06,WSW,242,1.0,4.0,84,0.00,,,0.00,Wunderground v.1.15,2013-06-16 08:12:00,
2013-06-16 04:14:00,67.8,63.1,30.06,SW,219,1.0,4.0,85,0.00,,,0.00,Wunderground v.1.15,2013-06-16 08:14:00,
2013-06-16 04:15:00,67.9,63.2,30.06,SSW,211,4.0,4.0,85,0.00,,,0.00,Wunderground v.1.15,2013-06-16 08:15:00,
2013-06-16 04:17:00,67.8,63.1,30.06,SSW,203,2.0,6.0,85,0.00,,,0.00,Wunderground v.1.15,2013-06-16 08:17:00,
2013-06-16 04:19:00,67.8,63.1,30.06,SW,229,3.0,6.0,85,0.00,,,0.00,Wunderground v.1.15,2013-06-16 08:19:00,
2013-06-16 04:20:00,67.9,63.2,30.06,WSW,238,2.0,3.0,85,0.00,,,0.00,Wunderground v.1.15,2013-06-16 08:20:00,
2013-06-16 04:21:00,67.9,63.2,30.06,SW,226,2.0,3.0,85,0.00,,,0.00,Wunderground v.1.15,2013-06-16 08:21:00,
2013-06-16 04:22:00,67.9,63.2,30.06,WSW,243,2.0,3.0,85,0.00,,,0.00,Wunderground v.1.15,2013-06-16 08:22:00,
2013-06-16 04:24:00,67.9,63.2,30.06,SSW,212,2.0,7.0,85,0.00,,,0.00,Wunderground v.1.15,2013-06-16 08:24:00,
2013-06-16 04:25:00,67.9,63.2,30.06,WSW,243,4.0,7.0,85,0.00,,,0.00,Wunderground v.1.15,2013-06-16 08:25:00,
2013-06-16 04:26:00,67.9,63.2,30.06,WSW,241,5.0,7.0,85,0.00,,,0.00,Wunderground v.1.15,2013-06-16 08:26:00,
2013-06-16 04:27:00,67.9,63.2,30.06,SW,221,1.0,7.0,85,0.00,,,0.00,Wunderground v.1.15,2013-06-16 08:27:00,
2013-06-16 04:28:00,67.9,63.2,30.06,SW,221,1.0,7.0,85,0.00,,,0.00,Wunderground v.1.15,2013-06-16 08:28:00,
2013-06-16 04:30:00,67.8,63.1,30.06,SSW,213,2.0,3.0,85,0.00,,,0.00,Wunderground v.1.15,2013-06-16 08:30:00,
2013-06-16 04:31:00,67.8,63.1,30.06,SSW,212,1.0,3.0,85,0.00,,,0.00,Wunderground v.1.15,2013-06-16 08:31:00,
2013-06-16 04:33:00,67.8,63.1,30.06,SW,235,1.0,3.0,85,0.00,,,0.00,Wunderground v.1.15,2013-06-16 08:33:00,
2013-06-16 04:35:00,67.8,63.1,30.06,SSW,213,1.0,3.0,85,0.00,,,0.00,Wunderground v.1.15,2013-06-16 08:35:00,
2013-06-16 04:36:00,67.8,63.1,30.06,SW,214,1.0,3.0,85,0.00,,,0.00,Wunderground v.1.15,2013-06-16 08:36:00,
2013-06-16 04:38:00,67.7,63.4,30.06,SW,228,1.0,3.0,86,0.00,,,0.00,Wunderground v.1.15,2013-06-16 08:38:00,
2013-06-16 04:39:00,67.7,63.4,30.06,SW,229,1.0,3.0,86,0.00,,,0.00,Wunderground v.1.15,2013-06-16 08:39:00,
2013-06-16 04:40:00,67.7,63.4,30.06,SW,232,2.0,2.0,86,0.00,,,0.00,Wunderground v.1.15,2013-06-16 08:40:00,
2013-06-16 04:41:00,67.6,63.3,30.06,SW,236,4.0,4.0,86,0.00,,,0.00,Wunderground v.1.15,2013-06-16 08:41:00,
2013-06-16 04:43:00,67.6,63.3,30.06,SW,226,1.0,4.0,86,0.00,,,0.00,Wunderground v.1.15,2013-06-16 08:43:00,
2013-06-16 04:45:00,67.6,63.3,30.06,SW,229,3.0,4.0,86,0.00,,,0.00,Wunderground v.1.15,2013-06-16 08:45:00,
2013-06-16 04:46:00,67.6,63.3,30.06,WSW,238,2.0,4.0,86,0.00,,,0.00,Wunderground v.1.15,2013-06-16 08:46:00,
2013-06-16 04:47:00,67.5,63.2,30.06,SW,222,3.0,4.0,86,0.00,,,0.00,Wunderground v.1.15,2013-06-16 08:47:00,
2013-06-16 04:48:00,67.5,63.2,30.06,SW,222,4.0,4.0,86,0.00,,,0.00,Wunderground v.1.15,2013-06-16 08:48:00,
2013-06-16 04:50:00,67.5,63.2,30.06,SW,224,2.0,3.0,86,0.00,,,0.00,Wunderground v.1.15,2013-06-16 08:50:00,
2013-06-16 04:51:00,67.5,63.2,30.06,SW,232,6.0,6.0,86,0.00,,,0.00,Wunderground v.1.15,2013-06-16 08:51:00,
2013-06-16 04:52:00,67.5,63.2,30.06,SW,231,2.0,7.0,86,0.00,,,0.00,Wunderground v.1.15,2013-06-16 08:52:00,
2013-06-16 04:53:00,67.5,63.2,30.07,SW,232,2.0,7.0,86,0.00,,,0.00,Wunderground v.1.15,2013-06-16 08:53:00,
2013-06-16 04:56:00,67.5,63.2,30.07,West,264,1.0,7.0,86,0.00,,,0.00,Wunderground v.1.15,2013-06-16 08:56:00,
2013-06-16 04:57:00,67.5,63.2,30.07,SW,231,2.0,7.0,86,0.00,,,0.00,Wunderground v.1.15,2013-06-16 08:57:00,
2013-06-16 04:58:00,67.4,63.1,30.07,SSW,207,1.0,7.0,86,0.00,,,0.00,Wunderground v.1.15,2013-06-16 08:58:00,
2013-06-16 05:01:00,67.4,63.4,30.07,SW,225,1.0,3.0,87,0.00,,,0.00,Wunderground v.1.15,2013-06-16 09:01:00,
2013-06-16 05:02:00,67.4,63.4,30.07,SW,222,1.0,3.0,87,0.00,,,0.00,Wunderground v.1.15,2013-06-16 09:02:00,
2013-06-16 05:03:00,67.3,63.3,30.07,WSW,252,2.0,3.0,87,0.00,,,0.00,Wunderground v.1.15,2013-06-16 09:03:00,
2013-06-16 05:06:00,67.3,63.3,30.07,SW,226,2.0,3.0,87,0.00,,,0.00,Wunderground v.1.15,2013-06-16 09:06:00,
2013-06-16 05:07:00,67.2,63.2,30.07,WSW,255,3.0,3.0,87,0.00,,,0.00,Wunderground v.1.15,2013-06-16 09:07:00,
2013-06-16 05:09:00,67.2,63.2,30.07,SW,232,2.0,3.0,87,0.00,,,0.00,Wunderground v.1.15,2013-06-16 09:09:00,
2013-06-16 05:11:00,67.2,63.2,30.07,SW,229,0.0,5.0,87,0.00,,,0.00,Wunderground v.1.15,2013-06-16 09:11:00,
2013-06-16 05:13:00,67.1,63.1,30.07,WSW,243,1.0,5.0,87,0.00,,,0.00,Wunderground v.1.15,2013-06-16 09:13:00,
2013-06-16 05:14:00,67.1,63.1,30.07,WSW,248,4.0,5.0,87,0.00,,,0.00,Wunderground v.1.15,2013-06-16 09:14:00,
2013-06-16 05:16:00,67.1,63.1,30.07,SW,221,2.0,6.0,87,0.00,,,0.00,Wunderground v.1.15,2013-06-16 09:16:00,
2013-06-16 05:17:00,67.1,63.1,30.07,SW,228,3.0,6.0,87,0.00,,,0.00,Wunderground v.1.15,2013-06-16 09:17:00,
2013-06-16 05:18:00,67.1,63.1,30.07,SW,226,3.0,6.0,87,0.00,,,0.00,Wunderground v.1.15,2013-06-16 09:18:00,
2013-06-16 05:19:00,67.1,63.1,30.07,WSW,239,1.0,6.0,87,0.00,,,0.00,Wunderground v.1.15,2013-06-16 09:19:00,
2013-06-16 05:21:00,67.0,63.0,30.07,SW,231,2.0,3.0,87,0.00,,,0.00,Wunderground v.1.15,2013-06-16 09:21:00,
2013-06-16 05:22:00,67.0,63.0,30.07,SW,229,1.0,3.0,87,0.00,,,0.00,Wunderground v.1.15,2013-06-16 09:22:00,
2013-06-16 05:23:00,67.0,63.0,30.07,SW,229,1.0,3.0,87,0.00,,,0.00,Wunderground v.1.15,2013-06-16 09:23:00,
2013-06-16 05:25:00,67.0,63.0,30.07,SW,225,1.0,5.0,87,0.00,,,0.00,Wunderground v.1.15,2013-06-16 09:25:00,
2013-06-16 05:26:00,66.9,62.9,30.07,SW,219,2.0,5.0,87,0.00,,,0.00,Wunderground v.1.15,2013-06-16 09:26:00,
2013-06-16 05:27:00,66.9,62.9,30.07,SW,219,1.0,5.0,87,0.00,,,0.00,Wunderground v.1.15,2013-06-16 09:27:00,
2013-06-16 05:28:00,66.9,62.9,30.07,SW,232,1.0,5.0,87,0.00,,,0.00,Wunderground v.1.15,2013-06-16 09:28:00,
2013-06-16 05:30:00,66.9,62.9,30.07,SW,233,2.0,2.0,87,0.00,,,0.00,Wunderground v.1.15,2013-06-16 09:30:00,
2013-06-16 05:31:00,66.9,62.9,30.07,SW,229,2.0,3.0,87,0.00,,,0.00,Wunderground v.1.15,2013-06-16 09:31:00,
2013-06-16 05:32:00,66.9,62.9,30.07,SW,226,2.0,3.0,87,0.00,,,0.00,Wunderground v.1.15,2013-06-16 09:32:00,
2013-06-16 05:33:00,66.8,62.8,30.07,SW,219,3.0,5.0,87,0.00,,,0.00,Wunderground v.1.15,2013-06-16 09:33:00,
2013-06-16 05:35:00,66.8,63.1,30.07,SSW,204,0.0,5.0,88,0.00,,,0.00,Wunderground v.1.15,2013-06-16 09:35:00,
2013-06-16 05:37:00,66.8,63.1,30.08,SSW,207,0.0,5.0,88,0.00,,,0.00,Wunderground v.1.15,2013-06-16 09:37:00,
2013-06-16 05:38:00,66.8,63.1,30.07,WSW,253,2.0,5.0,88,0.00,,,0.00,Wunderground v.1.15,2013-06-16 09:38:00,
2013-06-16 05:40:00,66.7,63.0,30.08,SW,221,1.0,2.0,88,0.00,,,0.00,Wunderground v.1.15,2013-06-16 09:40:00,
2013-06-16 05:42:00,66.8,63.1,30.07,SW,221,0.0,2.0,88,0.00,,,0.00,Wunderground v.1.15,2013-06-16 09:42:00,
2013-06-16 05:44:00,66.8,63.1,30.08,WSW,248,1.0,4.0,88,0.00,,,0.00,Wunderground v.1.15,2013-06-16 09:44:00,
2013-06-16 05:45:00,66.8,63.1,30.07,SW,222,3.0,4.0,88,0.00,,,0.00,Wunderground v.1.15,2013-06-16 09:45:00,
2013-06-16 05:47:00,66.8,63.1,30.07,SSW,211,3.0,5.0,88,0.00,,,0.00,Wunderground v.1.15,2013-06-16 09:47:00,
2013-06-16 05:49:00,66.9,63.2,30.07,SW,229,1.0,5.0,88,0.00,,,0.00,Wunderground v.1.15,2013-06-16 09:49:00,
2013-06-16 05:50:00,66.9,63.2,30.07,SW,232,3.0,3.0,88,0.00,,,0.00,Wunderground v.1.15,2013-06-16 09:50:00,
2013-06-16 05:52:00,67.0,63.0,30.07,SSW,210,3.0,8.0,87,0.00,,,0.00,Wunderground v.1.15,2013-06-16 09:52:00,
2013-06-16 05:53:00,67.0,63.0,30.07,SW,235,2.0,8.0,87,0.00,,,0.00,Wunderground v.1.15,2013-06-16 09:53:00,
2013-06-16 05:54:00,67.0,63.0,30.07,SW,231,1.0,8.0,87,0.00,,,0.00,Wunderground v.1.15,2013-06-16 09:54:00,
2013-06-16 05:55:00,67.0,63.0,30.07,SW,228,1.0,8.0,87,0.00,,,0.00,Wunderground v.1.15,2013-06-16 09:55:00,
2013-06-16 05:57:00,67.0,63.0,30.07,SW,225,1.0,8.0,87,0.00,,,0.00,Wunderground v.1.15,2013-06-16 09:57:00,
2013-06-16 05:59:00,67.0,63.0,30.07,SW,215,1.0,8.0,87,0.00,,,0.00,Wunderground v.1.15,2013-06-16 09:59:00,
2013-06-16 06:00:00,67.1,63.1,30.07,SW,223,4.0,4.0,87,0.00,,,0.00,Wunderground v.1.15,2013-06-16 10:00:00,
2013-06-16 06:01:00,67.0,63.0,30.07,WSW,243,2.0,4.0,87,0.00,,,0.00,Wunderground v.1.15,2013-06-16 10:01:00,
2013-06-16 06:02:00,67.0,63.0,30.08,SSW,211,2.0,4.0,87,0.00,,,0.00,Wunderground v.1.15,2013-06-16 10:02:00,
2013-06-16 06:04:00,67.0,63.0,30.08,West,265,3.0,4.0,87,0.00,,,0.00,Wunderground v.1.15,2013-06-16 10:04:00,
2013-06-16 06:05:00,67.0,63.0,30.08,SW,235,4.0,4.0,87,0.00,,,0.00,Wunderground v.1.15,2013-06-16 10:05:00,
2013-06-16 06:06:00,67.0,63.0,30.08,WSW,252,1.0,4.0,87,0.00,,,0.00,Wunderground v.1.15,2013-06-16 10:06:00,
2013-06-16 06:07:00,67.0,63.0,30.08,WSW,238,4.0,5.0,87,0.00,,,0.00,Wunderground v.1.15,2013-06-16 10:07:00,
2013-06-16 06:09:00,67.0,63.0,30.08,WSW,243,0.0,5.0,87,0.00,,,0.00,Wunderground v.1.15,2013-06-16 10:09:00,
2013-06-16 06:10:00,67.1,63.1,30.08,SW,218,3.0,4.0,87,0.00,,,0.00,Wunderground v.1.15,2013-06-16 10:10:00,
2013-06-16 06:11:00,67.0,63.0,30.08,WSW,243,2.0,4.0,87,0.00,,,0.00,Wunderground v.1.15,2013-06-16 10:11:00,
2013-06-16 06:13:00,67.1,63.1,30.08,SSW,204,1.0,4.0,87,0.00,,,0.00,Wunderground v.1.15,2013-06-16 10:13:00,
2013-06-16 06:14:00,67.0,63.0,30.08,WSW,240,3.0,4.0,87,0.00,,,0.00,Wunderground v.1.15,2013-06-16 10:14:00,
2013-06-16 06:15:00,67.0,63.0,30.08,SW,225,2.0,4.0,87,0.00,,,0.00,Wunderground v.1.15,2013-06-16 10:15:00,
2013-06-16 06:16:00,67.0,63.0,30.08,SW,224,2.0,4.0,87,0.00,,,0.00,Wunderground v.1.15,2013-06-16 10:16:00,
2013-06-16 06:18:00,67.0,63.0,30.08,SW,215,3.0,4.0,87,0.00,,,0.00,Wunderground v.1.15,2013-06-16 10:18:00,
2013-06-16 06:19:00,67.0,63.0,30.08,WNW,293,2.0,4.0,87,0.00,,,0.00,Wunderground v.1.15,2013-06-16 10:19:00,
2013-06-16 06:20:00,67.1,63.1,30.08,SSW,207,1.0,5.0,87,0.00,,,0.00,Wunderground v.1.15,2013-06-16 10:20:00,
2013-06-16 06:21:00,67.1,63.1,30.08,WSW,243,3.0,5.0,87,0.00,,,0.00,Wunderground v.1.15,2013-06-16 10:21:00,
2013-06-16 06:23:00,67.1,63.1,30.08,WSW,239,3.0,5.0,87,0.00,,,0.00,Wunderground v.1.15,2013-06-16 10:23:00,
2013-06-16 06:24:00,67.1,63.1,30.08,SW,235,2.0,5.0,87,0.00,,,0.00,Wunderground v.1.15,2013-06-16 10:24:00,
2013-06-16 06:26:00,67.1,63.1,30.08,SW,217,3.0,5.0,87,0.00,,,0.00,Wunderground v.1.15,2013-06-16 10:26:00,
2013-06-16 06:28:00,67.2,63.2,30.08,SSW,205,2.0,5.0,87,0.00,,,0.00,Wunderground v.1.15,2013-06-16 10:28:00,
2013-06-16 06:29:00,67.2,63.2,30.08,SW,225,1.0,5.0,87,0.00,,,0.00,Wunderground v.1.15,2013-06-16 10:29:00,
2013-06-16 06:31:00,67.2,63.2,30.08,SW,221,1.0,5.0,87,0.00,,,0.00,Wunderground v.1.15,2013-06-16 10:31:00,
2013-06-16 06:32:00,67.2,63.2,30.08,SW,235,2.0,5.0,87,0.00,,,0.00,Wunderground v.1.15,2013-06-16 10:32:00,
2013-06-16 06:33:00,67.2,63.2,30.08,SSW,207,2.0,5.0,87,0.00,,,0.00,Wunderground v.1.15,2013-06-16 10:33:00,
2013-06-16 06:35:00,67.2,63.2,30.08,SW,222,4.0,5.0,87,0.00,,,0.00,Wunderground v.1.15,2013-06-16 10:35:00,
2013-06-16 06:36:00,67.2,63.2,30.08,WSW,248,1.0,5.0,87,0.00,,,0.00,Wunderground v.1.15,2013-06-16 10:36:00,
2013-06-16 06:37:00,67.2,63.2,30.08,SSW,207,1.0,5.0,87,0.00,,,0.00,Wunderground v.1.15,2013-06-16 10:37:00,
2013-06-16 06:38:00,67.2,63.2,30.08,SSW,212,1.0,5.0,87,0.00,,,0.00,Wunderground v.1.15,2013-06-16 10:38:00,
2013-06-16 06:40:00,67.2,63.2,30.08,West,263,3.0,3.0,87,0.00,,,0.00,Wunderground v.1.15,2013-06-16 10:40:00,
2013-06-16 06:41:00,67.3,63.3,30.08,WSW,242,2.0,3.0,87,0.00,,,0.00,Wunderground v.1.15,2013-06-16 10:41:00,
2013-06-16 06:42:00,67.3,63.3,30.08,SW,225,1.0,3.0,87,0.00,,,0.00,Wunderground v.1.15,2013-06-16 10:42:00,
2013-06-16 06:45:00,67.2,63.2,30.08,WSW,239,2.0,6.0,87,0.00,,,0.00,Wunderground v.1.15,2013-06-16 10:45:00,
2013-06-16 06:46:00,67.2,63.2,30.08,SW,215,2.0,6.0,87,0.00,,,0.00,Wunderground v.1.15,2013-06-16 10:46:00,
2013-06-16 06:47:00,67.2,63.2,30.08,SW,228,2.0,6.0,87,0.00,,,0.00,Wunderground v.1.15,2013-06-16 10:47:00,
2013-06-16 06:50:00,67.2,63.2,30.08,WSW,250,2.0,2.0,87,0.00,,,0.00,Wunderground v.1.15,2013-06-16 10:50:00,
2013-06-16 06:51:00,67.2,63.2,30.08,SW,215,5.0,7.0,87,0.00,,,0.00,Wunderground v.1.15,2013-06-16 10:51:00,
2013-06-16 06:52:00,67.2,63.2,30.08,WSW,238,3.0,7.0,87,0.00,,,0.00,Wunderground v.1.15,2013-06-16 10:52:00,
2013-06-16 06:55:00,67.3,63.3,30.08,SW,215,2.0,7.0,87,0.00,,,0.00,Wunderground v.1.15,2013-06-16 10:55:00,
2013-06-16 06:56:00,67.3,63.3,30.09,SW,225,4.0,7.0,87,0.00,,,0.00,Wunderground v.1.15,2013-06-16 10:56:00,
2013-06-16 06:57:00,67.3,63.3,30.09,WSW,248,3.0,7.0,87,0.00,,,0.00,Wunderground v.1.15,2013-06-16 10:57:00,
2013-06-16 06:58:00,67.3,63.3,30.09,SW,226,2.0,7.0,87,0.00,,,0.00,Wunderground v.1.15,2013-06-16 10:58:00,
2013-06-16 07:01:00,67.3,63.3,30.09,WSW,248,3.0,5.0,87,0.00,,,0.00,Wunderground v.1.15,2013-06-16 11:01:00,
2013-06-16 07:02:00,67.3,63.3,30.09,SW,222,3.0,5.0,87,0.00,,,0.00,Wunderground v.1.15,2013-06-16 11:02:00,
2013-06-16 07:03:00,67.3,63.3,30.09,SW,235,2.0,5.0,87,0.00,,,0.00,Wunderground v.1.15,2013-06-16 11:03:00,
2013-06-16 07:06:00,67.3,63.3,30.09,SW,229,1.0,5.0,87,0.00,,,0.00,Wunderground v.1.15,2013-06-16 11:06:00,
2013-06-16 07:07:00,67.3,63.3,30.09,WSW,250,1.0,5.0,87,0.00,,,0.00,Wunderground v.1.15,2013-06-16 11:07:00,
2013-06-16 07:08:00,67.3,63.3,30.09,SW,229,2.0,5.0,87,0.00,,,0.00,Wunderground v.1.15,2013-06-16 11:08:00,
2013-06-16 07:11:00,67.3,63.3,30.09,WSW,240,1.0,2.0,87,0.00,,,0.00,Wunderground v.1.15,2013-06-16 11:11:00,
2013-06-16 07:12:00,67.4,63.4,30.09,WSW,239,3.0,4.0,87,0.00,,,0.00,Wunderground v.1.15,2013-06-16 11:12:00,
2013-06-16 07:13:00,67.4,63.4,30.09,SW,233,2.0,5.0,87,0.00,,,0.00,Wunderground v.1.15,2013-06-16 11:13:00,
2013-06-16 07:16:00,67.5,63.5,30.09,WSW,238,4.0,6.0,87,0.00,,,0.00,Wunderground v.1.15,2013-06-16 11:16:00,
2013-06-16 07:17:00,67.4,63.4,30.09,SW,236,2.0,6.0,87,0.00,,,0.00,Wunderground v.1.15,2013-06-16 11:17:00,
2013-06-16 07:18:00,67.5,63.5,30.09,WSW,250,4.0,6.0,87,0.00,,,0.00,Wunderground v.1.15,2013-06-16 11:18:00,
2013-06-16 07:21:00,67.6,63.6,30.10,WSW,248,1.0,4.0,87,0.00,,,0.00,Wunderground v.1.15,2013-06-16 11:21:00,
2013-06-16 07:22:00,67.6,63.6,30.10,WSW,248,0.0,4.0,87,0.00,,,0.00,Wunderground v.1.15,2013-06-16 11:22:00,
2013-06-16 07:24:00,67.6,63.6,30.10,SW,232,2.0,4.0,87,0.00,,,0.00,Wunderground v.1.15,2013-06-16 11:24:00,
2013-06-16 07:26:00,67.6,63.6,30.10,SW,215,3.0,6.0,87,0.00,,,0.00,Wunderground v.1.15,2013-06-16 11:26:00,
2013-06-16 07:27:00,67.6,63.6,30.10,SW,225,2.0,6.0,87,0.00,,,0.00,Wunderground v.1.15,2013-06-16 11:27:00,
2013-06-16 07:28:00,67.6,63.6,30.10,SW,233,3.0,6.0,87,0.00,,,0.00,Wunderground v.1.15,2013-06-16 11:28:00,
2013-06-16 07:29:00,67.7,63.7,30.10,SW,229,2.0,6.0,87,0.00,,,0.00,Wunderground v.1.15,2013-06-16 11:29:00,
2013-06-16 07:31:00,67.6,63.6,30.10,WSW,256,4.0,6.0,87,0.00,,,0.00,Wunderground v.1.15,2013-06-16 11:31:00,
2013-06-16 07:32:00,67.7,63.7,30.10,WSW,248,4.0,6.0,87,0.00,,,0.00,Wunderground v.1.15,2013-06-16 11:32:00,
2013-06-16 07:33:00,67.7,63.7,30.10,SW,229,1.0,6.0,87,0.00,,,0.00,Wunderground v.1.15,2013-06-16 11:33:00,
2013-06-16 07:34:00,67.7,63.7,30.10,SW,229,1.0,6.0,87,0.00,,,0.00,Wunderground v.1.15,2013-06-16 11:34:00,
2013-06-16 07:36:00,67.7,63.7,30.10,SW,232,3.0,6.0,87,0.00,,,0.00,Wunderground v.1.15,2013-06-16 11:36:00,
2013-06-16 07:37:00,67.7,63.7,30.10,WSW,240,3.0,6.0,87,0.00,,,0.00,Wunderground v.1.15,2013-06-16 11:37:00,
2013-06-16 07:38:00,67.7,63.7,30.10,SSW,205,3.0,6.0,87,0.00,,,0.00,Wunderground v.1.15,2013-06-16 11:38:00,
2013-06-16 07:39:00,67.7,63.7,30.10,WSW,258,4.0,7.0,87,0.00,,,0.00,Wunderground v.1.15,2013-06-16 11:39:00,
2013-06-16 07:41:00,67.7,63.7,30.10,WSW,239,4.0,6.0,87,0.00,,,0.00,Wunderground v.1.15,2013-06-16 11:41:00,
2013-06-16 07:42:00,67.7,63.7,30.10,SW,225,4.0,6.0,87,0.00,,,0.00,Wunderground v.1.15,2013-06-16 11:42:00,
2013-06-16 07:44:00,67.7,64.0,30.10,SW,233,3.0,6.0,88,0.00,,,0.00,Wunderground v.1.15,2013-06-16 11:44:00,
2013-06-16 07:47:00,67.7,63.7,30.10,WSW,238,4.0,6.0,87,0.00,,,0.00,Wunderground v.1.15,2013-06-16 11:47:00,
2013-06-16 07:49:00,67.7,63.7,30.10,WSW,242,3.0,6.0,87,0.00,,,0.00,Wunderground v.1.15,2013-06-16 11:49:00,
2013-06-16 07:52:00,67.8,63.8,30.10,SW,229,2.0,6.0,87,0.00,,,0.00,Wunderground v.1.15,2013-06-16 11:52:00,
2013-06-16 07:53:00,67.8,63.8,30.10,SW,235,3.0,6.0,87,0.00,,,0.00,Wunderground v.1.15,2013-06-16 11:53:00,
2013-06-16 07:54:00,67.8,63.8,30.10,WSW,253,2.0,6.0,87,0.00,,,0.00,Wunderground v.1.15,2013-06-16 11:54:00,
2013-06-16 07:55:00,67.9,63.9,30.10,SW,229,4.0,6.0,87,0.00,,,0.00,Wunderground v.1.15,2013-06-16 11:55:00,
2013-06-16 07:58:00,67.9,63.9,30.10,SW,229,0.0,6.0,87,0.00,,,0.00,Wunderground v.1.15,2013-06-16 11:58:00,
2013-06-16 07:59:00,67.9,63.9,30.10,SW,229,1.0,6.0,87,0.00,,,0.00,Wunderground v.1.15,2013-06-16 11:59:00,
2013-06-16 08:00:00,68.0,64.3,30.10,SW,229,1.0,3.0,88,0.00,,,0.00,Wunderground v.1.15,2013-06-16 12:00:00,
2013-06-16 08:03:00,68.1,64.1,30.10,SW,225,2.0,3.0,87,0.00,,,0.00,Wunderground v.1.15,2013-06-16 12:03:00,
2013-06-16 08:04:00,68.2,64.5,30.10,WSW,253,1.0,3.0,88,0.00,,,0.00,Wunderground v.1.15,2013-06-16 12:04:00,
2013-06-16 08:05:00,68.2,64.5,30.10,SW,225,2.0,5.0,88,0.00,,,0.00,Wunderground v.1.15,2013-06-16 12:05:00,
2013-06-16 08:08:00,68.4,64.4,30.10,West,281,5.0,5.0,87,0.00,,,0.00,Wunderground v.1.15,2013-06-16 12:08:00,
2013-06-16 08:09:00,68.3,64.3,30.10,WSW,257,2.0,5.0,87,0.00,,,0.00,Wunderground v.1.15,2013-06-16 12:09:00,
2013-06-16 08:10:00,68.4,64.4,30.10,WSW,241,3.0,3.0,87,0.00,,,0.00,Wunderground v.1.15,2013-06-16 12:10:00,
2013-06-16 08:11:00,68.4,64.4,30.10,SW,232,3.0,3.0,87,0.00,,,0.00,Wunderground v.1.15,2013-06-16 12:11:00,
2013-06-16 08:14:00,68.5,64.5,30.10,SW,225,1.0,3.0,87,0.00,,,0.00,Wunderground v.1.15,2013-06-16 12:14:00,
2013-06-16 08:15:00,68.6,64.6,30.10,SW,235,2.0,4.0,87,0.00,,,0.00,Wunderground v.1.15,2013-06-16 12:15:00,
2013-06-16 08:16:00,68.6,64.6,30.10,WSW,238,2.0,4.0,87,0.00,,,0.00,Wunderground v.1.15,2013-06-16 12:16:00,
2013-06-16 08:19:00,68.8,64.8,30.10,WSW,240,2.0,4.0,87,0.00,,,0.00,Wunderground v.1.15,2013-06-16 12:19:00,
2013-06-16 08:20:00,68.9,64.9,30.10,SW,236,2.0,2.0,87,0.00,,,0.00,Wunderground v.1.15,2013-06-16 12:20:00,
2013-06-16 08:21:00,68.9,64.9,30.10,SW,233,2.0,2.0,87,0.00,,,0.00,Wunderground v.1.15,2013-06-16 12:21:00,
2013-06-16 08:24:00,69.1,65.1,30.10,WSW,238,1.0,3.0,87,0.00,,,0.00,Wunderground v.1.15,2013-06-16 12:24:00,
2013-06-16 08:25:00,69.2,65.2,30.10,SW,225,1.0,3.0,87,0.00,,,0.00,Wunderground v.1.15,2013-06-16 12:25:00,
2013-06-16 08:26:00,69.3,65.3,30.10,SW,226,2.0,3.0,87,0.00,,,0.00,Wunderground v.1.15,2013-06-16 12:26:00,
2013-06-16 08:27:00,69.3,65.3,30.10,WSW,241,4.0,5.0,87,0.00,,,0.00,Wunderground v.1.15,2013-06-16 12:27:00,
2013-06-16 08:29:00,69.5,65.1,30.10,SW,221,0.0,5.0,86,0.00,,,0.00,Wunderground v.1.15,2013-06-16 12:29:00,
2013-06-16 08:30:00,69.5,65.1,30.10,SW,235,1.0,2.0,86,0.00,,,0.00,Wunderground v.1.15,2013-06-16 12:30:00,
2013-06-16 08:31:00,69.6,65.6,30.10,SW,229,2.0,2.0,87,0.00,,,0.00,Wunderground v.1.15,2013-06-16 12:31:00,
2013-06-16 08:32:00,69.7,65.7,30.10,WSW,249,3.0,3.0,87,0.00,,,0.00,Wunderground v.1.15,2013-06-16 12:32:00,
2013-06-16 08:34:00,69.9,65.2,30.10,WSW,253,4.0,7.0,85,0.00,,,0.00,Wunderground v.1.15,2013-06-16 12:34:00,
2013-06-16 08:35:00,69.9,65.2,30.10,WSW,253,2.0,7.0,85,0.00,,,0.00,Wunderground v.1.15,2013-06-16 12:35:00,
2013-06-16 08:36:00,70.0,65.3,30.10,WSW,242,3.0,7.0,85,0.00,,,0.00,Wunderground v.1.15,2013-06-16 12:36:00,
2013-06-16 08:37:00,70.1,65.7,30.10,SW,218,0.0,7.0,86,0.00,,,0.00,Wunderground v.1.15,2013-06-16 12:37:00,
2013-06-16 08:39:00,70.4,66.0,30.10,SW,217,0.0,7.0,86,0.00,,,0.00,Wunderground v.1.15,2013-06-16 12:39:00,
2013-06-16 08:40:00,70.4,66.0,30.10,WSW,255,1.0,2.0,86,0.00,,,0.00,Wunderground v.1.15,2013-06-16 12:40:00,
2013-06-16 08:41:00,70.5,66.1,30.10,SW,228,1.0,2.0,86,0.00,,,0.00,Wunderground v.1.15,2013-06-16 12:41:00,
2013-06-16 08:42:00,70.8,66.4,30.10,SW,221,1.0,2.0,86,0.00,,,0.00,Wunderground v.1.15,2013-06-16 12:42:00,
2013-06-16 08:45:00,71.2,66.5,30.10,SW,222,1.0,2.0,85,0.00,,,0.00,Wunderground v.1.15,2013-06-16 12:45:00,
2013-06-16 08:46:00,71.3,66.6,30.10,SW,236,5.0,5.0,85,0.00,,,0.00,Wunderground v.1.15,2013-06-16 12:46:00,
2013-06-16 08:48:00,71.4,66.0,30.10,SW,232,2.0,7.0,83,0.00,,,0.00,Wunderground v.1.15,2013-06-16 12:48:00,
2013-06-16 08:50:00,71.7,66.6,30.10,West,259,1.0,1.0,84,0.00,,,0.00,Wunderground v.1.15,2013-06-16 12:50:00,
2013-06-16 08:51:00,71.8,66.7,30.10,WSW,246,2.0,2.0,84,0.00,,,0.00,Wunderground v.1.15,2013-06-16 12:51:00,
2013-06-16 08:52:00,71.9,66.5,30.10,SSW,207,1.0,2.0,83,0.00,,,0.00,Wunderground v.1.15,2013-06-16 12:52:00,
2013-06-16 08:53:00,71.9,66.5,30.10,WSW,250,4.0,4.0,83,0.00,,,0.00,Wunderground v.1.15,2013-06-16 12:53:00,
2013-06-16 08:55:00,72.1,66.3,30.10,SW,236,2.0,4.0,82,0.00,,,0.00,Wunderground v.1.15,2013-06-16 12:55:00,
2013-06-16 08:56:00,72.2,66.7,30.10,SW,229,4.0,5.0,83,0.00,,,0.00,Wunderground v.1.15,2013-06-16 12:56:00,
2013-06-16 08:57:00,72.2,66.4,30.10,WSW,255,2.0,5.0,82,0.00,,,0.00,Wunderground v.1.15,2013-06-16 12:57:00,
2013-06-16 08:58:00,72.3,66.5,30.10,West,264,2.0,5.0,82,0.00,,,0.00,Wunderground v.1.15,2013-06-16 12:58:00,
2013-06-16 09:00:00,72.4,66.6,30.10,SSW,205,2.0,7.0,82,0.00,,,0.00,Wunderground v.1.15,2013-06-16 13:00:00,
2013-06-16 09:01:00,72.4,66.2,30.10,SW,214,2.0,7.0,81,0.00,,,0.00,Wunderground v.1.15,2013-06-16 13:01:00,
2013-06-16 09:02:00,72.5,66.3,30.10,SW,233,4.0,7.0,81,0.00,,,0.00,Wunderground v.1.15,2013-06-16 13:02:00,
2013-06-16 09:04:00,72.6,66.4,30.10,WSW,248,1.0,7.0,81,0.00,,,0.00,Wunderground v.1.15,2013-06-16 13:04:00,
2013-06-16 09:05:00,72.8,67.0,30.10,WSW,243,2.0,7.0,82,0.00,,,0.00,Wunderground v.1.15,2013-06-16 13:05:00,
2013-06-16 09:06:00,72.8,67.0,30.10,WSW,252,3.0,7.0,82,0.00,,,0.00,Wunderground v.1.15,2013-06-16 13:06:00,
2013-06-16 09:07:00,72.8,66.6,30.10,WSW,243,1.0,7.0,81,0.00,,,0.00,Wunderground v.1.15,2013-06-16 13:07:00,
2013-06-16 09:09:00,73.0,66.8,30.10,SW,234,3.0,7.0,81,0.00,,,0.00,Wunderground v.1.15,2013-06-16 13:09:00,
2013-06-16 09:11:00,73.2,67.0,30.09,WSW,240,3.0,5.0,81,0.00,,,0.00,Wunderground v.1.15,2013-06-16 13:11:00,
2013-06-16 09:12:00,73.2,67.0,30.09,SW,219,1.0,5.0,81,0.00,,,0.00,Wunderground v.1.15,2013-06-16 13:12:00,
2013-06-16 09:14:00,73.5,67.7,30.09,WSW,242,3.0,5.0,82,0.00,,,0.00,Wunderground v.1.15,2013-06-16 13:14:00,
2013-06-16 09:16:00,73.7,67.5,30.09,WSW,237,0.0,5.0,81,0.00,,,0.00,Wunderground v.1.15,2013-06-16 13:16:00,
2013-06-16 09:17:00,73.9,67.7,30.10,WSW,237,1.0,5.0,81,0.00,,,0.00,Wunderground v.1.15,2013-06-16 13:17:00,
2013-06-16 09:19:00,74.3,67.7,30.10,WSW,257,1.0,5.0,80,0.00,,,0.00,Wunderground v.1.15,2013-06-16 13:19:00,
2013-06-16 09:21:00,74.4,67.5,30.10,SW,235,1.0,3.0,79,0.00,,,0.00,Wunderground v.1.15,2013-06-16 13:21:00,
2013-06-16 09:22:00,74.5,67.6,30.10,SW,235,2.0,3.0,79,0.00,,,0.00,Wunderground v.1.15,2013-06-16 13:22:00,
2013-06-16 09:25:00,74.8,67.5,30.10,SW,229,1.0,6.0,78,0.00,,,0.00,Wunderground v.1.15,2013-06-16 13:25:00,
2013-06-16 09:26:00,74.9,67.9,30.10,SW,222,0.0,6.0,79,0.00,,,0.00,Wunderground v.1.15,2013-06-16 13:26:00,
2013-06-16 09:27:00,75.0,68.4,30.10,SW,218,1.0,6.0,80,0.00,,,0.00,Wunderground v.1.15,2013-06-16 13:27:00,
2013-06-16 09:30:00,75.3,68.3,30.10,SW,224,2.0,2.0,79,0.00,,,0.00,Wunderground v.1.15,2013-06-16 13:30:00,
2013-06-16 09:31:00,75.4,68.1,30.10,SW,232,2.0,6.0,78,0.00,,,0.00,Wunderground v.1.15,2013-06-16 13:31:00,
2013-06-16 09:33:00,75.4,67.7,30.10,SW,224,4.0,6.0,77,0.00,,,0.00,Wunderground v.1.15,2013-06-16 13:33:00,
2013-06-16 09:35:00,75.3,67.2,30.10,SW,224,4.0,6.0,76,0.00,,,0.00,Wunderground v.1.15,2013-06-16 13:35:00,
2013-06-16 09:36:00,75.3,67.6,30.10,SW,226,2.0,6.0,77,0.00,,,0.00,Wunderground v.1.15,2013-06-16 13:36:00,
2013-06-16 09:38:00,75.3,67.6,30.10,West,262,1.0,6.0,77,0.00,,,0.00,Wunderground v.1.15,2013-06-16 13:38:00,
2013-06-16 09:40:00,75.3,67.6,30.10,SW,229,3.0,3.0,77,0.00,,,0.00,Wunderground v.1.15,2013-06-16 13:40:00,
2013-06-16 09:41:00,75.4,67.3,30.10,WSW,252,3.0,5.0,76,0.00,,,0.00,Wunderground v.1.15,2013-06-16 13:41:00,
2013-06-16 09:42:00,75.4,67.3,30.10,SW,224,3.0,5.0,76,0.00,,,0.00,Wunderground v.1.15,2013-06-16 13:42:00,
2013-06-16 09:43:00,75.4,67.3,30.10,SW,219,2.0,5.0,76,0.00,,,0.00,Wunderground v.1.15,2013-06-16 13:43:00,
2013-06-16 09:46:00,75.5,67.4,30.09,SW,226,1.0,5.0,76,0.00,,,0.00,Wunderground v.1.15,2013-06-16 13:46:00,
2013-06-16 09:47:00,75.7,68.0,30.09,SSW,212,1.0,5.0,77,0.00,,,0.00,Wunderground v.1.15,2013-06-16 13:47:00,
2013-06-16 09:48:00,76.0,68.3,30.09,SW,221,0.0,5.0,77,0.00,,,0.00,Wunderground v.1.15,2013-06-16 13:48:00,
2013-06-16 09:51:00,76.4,68.3,30.09,SW,218,1.0,3.0,76,0.00,,,0.00,Wunderground v.1.15,2013-06-16 13:51:00,
2013-06-16 09:52:00,76.5,68.0,30.09,SSW,207,1.0,5.0,75,0.00,,,0.00,Wunderground v.1.15,2013-06-16 13:52:00,
2013-06-16 09:54:00,76.6,68.5,30.09,SW,236,1.0,5.0,76,0.00,,,0.00,Wunderground v.1.15,2013-06-16 13:54:00,
2013-06-16 09:56:00,76.9,68.8,30.09,WSW,245,0.0,5.0,76,0.00,,,0.00,Wunderground v.1.15,2013-06-16 13:56:00,
2013-06-16 09:57:00,77.1,69.3,30.09,SW,224,1.0,5.0,77,0.00,,,0.00,Wunderground v.1.15,2013-06-16 13:57:00,
2013-06-16 09:58:00,77.1,68.6,30.09,SW,222,1.0,5.0,75,0.00,,,0.00,Wunderground v.1.15,2013-06-16 13:58:00,
2013-06-16 09:59:00,77.3,68.0,30.09,SSW,208,3.0,6.0,73,0.00,,,0.00,Wunderground v.1.15,2013-06-16 13:59:00,
2013-06-16 10:01:00,77.3,68.0,30.09,West,262,4.0,7.0,73,0.00,,,0.00,Wunderground v.1.15,2013-06-16 14:01:00,
2013-06-16 10:02:00,77.1,67.4,30.09,SW,232,5.0,7.0,72,0.00,,,0.00,Wunderground v.1.15,2013-06-16 14:02:00,
2013-06-16 10:03:00,77.0,68.1,30.09,WSW,238,2.0,7.0,74,0.00,,,0.00,Wunderground v.1.15,2013-06-16 14:03:00,
2013-06-16 10:04:00,77.0,68.5,30.09,SW,224,1.0,7.0,75,0.00,,,0.00,Wunderground v.1.15,2013-06-16 14:04:00,
2013-06-16 10:06:00,77.1,68.2,30.09,SW,228,0.0,7.0,74,0.00,,,0.00,Wunderground v.1.15,2013-06-16 14:06:00,
2013-06-16 10:07:00,77.2,67.9,30.09,SSW,210,5.0,7.0,73,0.00,,,0.00,Wunderground v.1.15,2013-06-16 14:07:00,
2013-06-16 10:08:00,77.2,67.9,30.09,South,190,1.0,7.0,73,0.00,,,0.00,Wunderground v.1.15,2013-06-16 14:08:00,
2013-06-16 10:09:00,77.3,68.4,30.09,SSW,204,0.0,7.0,74,0.00,,,0.00,Wunderground v.1.15,2013-06-16 14:09:00,
2013-06-16 10:11:00,77.5,68.2,30.09,SW,221,4.0,4.0,73,0.00,,,0.00,Wunderground v.1.15,2013-06-16 14:11:00,
2013-06-16 10:13:00,77.5,68.2,30.09,WSW,257,6.0,6.0,73,0.00,,,0.00,Wunderground v.1.15,2013-06-16 14:13:00,
2013-06-16 10:15:00,77.5,68.6,30.08,WSW,246,2.0,6.0,74,0.00,,,0.00,Wunderground v.1.15,2013-06-16 14:15:00,
2013-06-16 10:16:00,77.5,68.6,30.08,SW,235,5.0,6.0,74,0.00,,,0.00,Wunderground v.1.15,2013-06-16 14:16:00,
2013-06-16 10:18:00,77.5,67.8,30.08,SSW,205,1.0,6.0,72,0.00,,,0.00,Wunderground v.1.15,2013-06-16 14:18:00,
2013-06-16 10:19:00,77.5,68.2,30.08,SSW,206,0.0,6.0,73,0.00,,,0.00,Wunderground v.1.15,2013-06-16 14:19:00,
2013-06-16 10:20:00,77.6,68.3,30.08,SW,219,3.0,4.0,73,0.00,,,0.00,Wunderground v.1.15,2013-06-16 14:20:00,
2013-06-16 10:22:00,77.7,68.0,30.08,SW,224,3.0,6.0,72,0.00,,,0.00,Wunderground v.1.15,2013-06-16 14:22:00,
2013-06-16 10:23:00,77.7,67.5,30.08,SW,229,4.0,6.0,71,0.00,,,0.00,Wunderground v.1.15,2013-06-16 14:23:00,
2013-06-16 10:24:00,77.6,67.4,30.08,SW,218,2.0,6.0,71,0.00,,,0.00,Wunderground v.1.15,2013-06-16 14:24:00,
2013-06-16 10:25:00,77.6,67.9,30.08,SSW,208,1.0,6.0,72,0.00,,,0.00,Wunderground v.1.15,2013-06-16 14:25:00,
2013-06-16 10:27:00,77.7,68.4,30.08,WSW,240,3.0,6.0,73,0.00,,,0.00,Wunderground v.1.15,2013-06-16 14:27:00,
2013-06-16 10:28:00,77.8,68.0,30.08,WSW,258,2.0,6.0,72,0.00,,,0.00,Wunderground v.1.15,2013-06-16 14:28:00,
2013-06-16 10:29:00,77.8,67.6,30.08,SW,229,3.0,6.0,71,0.00,,,0.00,Wunderground v.1.15,2013-06-16 14:29:00,
2013-06-16 10:30:00,77.7,67.5,30.08,WSW,246,2.0,3.0,71,0.00,,,0.00,Wunderground v.1.15,2013-06-16 14:30:00,
2013-06-16 10:32:00,77.7,68.4,30.08,SW,219,0.0,4.0,73,0.00,,,0.00,Wunderground v.1.15,2013-06-16 14:32:00,
2013-06-16 10:33:00,77.8,68.0,30.08,SW,222,2.0,5.0,72,0.00,,,0.00,Wunderground v.1.15,2013-06-16 14:33:00,
2013-06-16 10:35:00,78.0,68.2,30.08,SSW,197,2.0,9.0,72,0.00,,,0.00,Wunderground v.1.15,2013-06-16 14:35:00,
2013-06-16 10:37:00,78.0,67.4,30.08,SW,222,4.0,9.0,70,0.00,,,0.00,Wunderground v.1.15,2013-06-16 14:37:00,
2013-06-16 10:38:00,77.9,67.3,30.08,WSW,250,3.0,9.0,70,0.00,,,0.00,Wunderground v.1.15,2013-06-16 14:38:00,
2013-06-16 10:39:00,77.9,67.3,30.08,WSW,248,2.0,9.0,70,0.00,,,0.00,Wunderground v.1.15,2013-06-16 14:39:00,
2013-06-16 10:40:00,77.9,67.7,30.08,SW,224,3.0,4.0,71,0.00,,,0.00,Wunderground v.1.15,2013-06-16 14:40:00,
2013-06-16 10:42:00,78.0,68.6,30.08,WSW,240,2.0,6.0,73,0.00,,,0.00,Wunderground v.1.15,2013-06-16 14:42:00,
2013-06-16 10:44:00,78.0,67.4,30.08,WSW,256,3.0,6.0,70,0.00,,,0.00,Wunderground v.1.15,2013-06-16 14:44:00,
2013-06-16 10:45:00,78.1,68.3,30.08,WNW,302,2.0,6.0,72,0.00,,,0.00,Wunderground v.1.15,2013-06-16 14:45:00,
2013-06-16 10:47:00,78.2,68.4,30.08,WSW,240,2.0,6.0,72,0.00,,,0.00,Wunderground v.1.15,2013-06-16 14:47:00,
2013-06-16 10:49:00,78.4,69.0,30.08,West,271,1.0,6.0,73,0.00,,,0.00,Wunderground v.1.15,2013-06-16 14:49:00,
2013-06-16 10:51:00,78.6,69.2,30.08,SSE,159,1.0,6.0,73,0.00,,,0.00,Wunderground v.1.15,2013-06-16 14:51:00,
2013-06-16 10:52:00,78.8,69.0,30.07,SW,233,1.0,6.0,72,0.00,,,0.00,Wunderground v.1.15,2013-06-16 14:52:00,
2013-06-16 10:54:00,79.2,69.0,30.07,South,188,1.0,6.0,71,0.00,,,0.00,Wunderground v.1.15,2013-06-16 14:54:00,
2013-06-16 10:56:00,79.4,69.2,30.07,SW,221,4.0,6.0,71,0.00,,,0.00,Wunderground v.1.15,2013-06-16 14:56:00,
2013-06-16 10:57:00,79.4,68.3,30.07,SW,225,2.0,6.0,69,0.00,,,0.00,Wunderground v.1.15,2013-06-16 14:57:00,
2013-06-16 10:59:00,79.5,68.9,30.07,SW,215,1.0,6.0,70,0.00,,,0.00,Wunderground v.1.15,2013-06-16 14:59:00,
2013-06-16 11:00:00,79.5,68.9,30.07,SW,215,0.0,2.0,70,0.00,,,0.00,Wunderground v.1.15,2013-06-16 15:00:00,
2013-06-16 11:01:00,79.6,69.0,30.07,SW,215,1.0,2.0,70,0.00,,,0.00,Wunderground v.1.15,2013-06-16 15:01:00,
2013-06-16 11:02:00,80.0,69.3,30.07,SW,215,2.0,2.0,70,0.00,,,0.00,Wunderground v.1.15,2013-06-16 15:02:00,
2013-06-16 11:04:00,80.3,69.2,30.07,SW,226,2.0,2.0,69,0.00,,,0.00,Wunderground v.1.15,2013-06-16 15:04:00,
2013-06-16 11:05:00,80.4,69.3,30.07,West,259,1.0,2.0,69,0.00,,,0.00,Wunderground v.1.15,2013-06-16 15:05:00,
2013-06-16 11:06:00,80.5,69.8,30.07,WNW,284,1.0,2.0,70,0.00,,,0.00,Wunderground v.1.15,2013-06-16 15:06:00,
2013-06-16 11:07:00,80.6,69.5,30.07,WSW,249,1.0,2.0,69,0.00,,,0.00,Wunderground v.1.15,2013-06-16 15:07:00,
2013-06-16 11:09:00,80.8,69.7,30.07,WSW,256,2.0,4.0,69,0.00,,,0.00,Wunderground v.1.15,2013-06-16 15:09:00,
2013-06-16 11:10:00,80.8,68.8,30.07,WSW,252,3.0,3.0,67,0.00,,,0.00,Wunderground v.1.15,2013-06-16 15:10:00,
2013-06-16 11:11:00,80.7,68.7,30.07,SW,236,4.0,4.0,67,0.00,,,0.00,Wunderground v.1.15,2013-06-16 15:11:00,
2013-06-16 11:12:00,80.6,69.1,30.07,WSW,250,1.0,7.0,68,0.00,,,0.00,Wunderground v.1.15,2013-06-16 15:12:00,
2013-06-16 11:13:00,80.6,68.6,30.07,WSW,255,3.0,7.0,67,0.00,,,0.00,Wunderground v.1.15,2013-06-16 15:13:00,
2013-06-16 11:15:00,80.3,67.9,30.07,SW,232,3.0,7.0,66,0.00,,,0.00,Wunderground v.1.15,2013-06-16 15:15:00,
2013-06-16 11:16:00,80.2,67.8,30.07,SW,233,5.0,7.0,66,0.00,,,0.00,Wunderground v.1.15,2013-06-16 15:16:00,
2013-06-16 11:17:00,80.1,67.7,30.07,WSW,240,2.0,7.0,66,0.00,,,0.00,Wunderground v.1.15,2013-06-16 15:17:00,
2013-06-16 11:18:00,80.1,68.2,30.07,SW,231,1.0,7.0,67,0.00,,,0.00,Wunderground v.1.15,2013-06-16 15:18:00,
2013-06-16 11:20:00,80.2,68.2,30.07,SW,218,1.0,3.0,67,0.00,,,0.00,Wunderground v.1.15,2013-06-16 15:20:00,
2013-06-16 11:21:00,80.3,68.8,30.07,SSW,205,2.0,3.0,68,0.00,,,0.00,Wunderground v.1.15,2013-06-16 15:21:00,
2013-06-16 11:22:00,80.4,69.3,30.07,WNW,290,2.0,3.0,69,0.00,,,0.00,Wunderground v.1.15,2013-06-16 15:22:00,
2013-06-16 11:23:00,80.5,68.5,30.07,SW,228,2.0,4.0,67,0.00,,,0.00,Wunderground v.1.15,2013-06-16 15:23:00,
2013-06-16 11:25:00,80.6,69.1,30.07,WSW,248,2.0,4.0,68,0.00,,,0.00,Wunderground v.1.15,2013-06-16 15:25:00,
2013-06-16 11:26:00,80.7,69.2,30.07,SW,235,3.0,4.0,68,0.00,,,0.00,Wunderground v.1.15,2013-06-16 15:26:00,
2013-06-16 11:27:00,80.7,69.2,30.07,WSW,255,2.0,4.0,68,0.00,,,0.00,Wunderground v.1.15,2013-06-16 15:27:00,
2013-06-16 11:28:00,80.7,68.7,30.07,WSW,239,3.0,4.0,67,0.00,,,0.00,Wunderground v.1.15,2013-06-16 15:28:00,
2013-06-16 11:30:00,80.7,68.3,30.07,WSW,257,1.0,4.0,66,0.00,,,0.00,Wunderground v.1.15,2013-06-16 15:30:00,
2013-06-16 11:31:00,80.7,69.2,30.07,SW,214,1.0,4.0,68,0.00,,,0.00,Wunderground v.1.15,2013-06-16 15:31:00,
2013-06-16 11:32:00,80.7,69.6,30.07,SW,214,0.0,4.0,69,0.00,,,0.00,Wunderground v.1.15,2013-06-16 15:32:00,
2013-06-16 11:34:00,81.0,69.4,30.07,SW,226,2.0,4.0,68,0.00,,,0.00,Wunderground v.1.15,2013-06-16 15:34:00,
2013-06-16 11:35:00,81.3,70.6,30.06,SW,228,0.0,4.0,70,0.00,,,0.00,Wunderground v.1.15,2013-06-16 15:35:00,
2013-06-16 11:36:00,81.5,71.2,30.06,West,267,1.0,4.0,71,0.00,,,0.00,Wunderground v.1.15,2013-06-16 15:36:00,
2013-06-16 11:37:00,81.5,69.9,30.06,West,267,0.0,4.0,68,0.00,,,0.00,Wunderground v.1.15,2013-06-16 15:37:00,
2013-06-16 11:39:00,81.9,70.3,30.06,South,172,1.0,4.0,68,0.00,,,0.00,Wunderground v.1.15,2013-06-16 15:39:00,
2013-06-16 11:40:00,82.1,70.1,30.07,SSW,212,2.0,4.0,67,0.00,,,0.00,Wunderground v.1.15,2013-06-16 15:40:00,
2013-06-16 11:42:00,82.2,69.3,30.07,WSW,240,3.0,4.0,65,0.00,,,0.00,Wunderground v.1.15,2013-06-16 15:42:00,
2013-06-16 11:43:00,82.2,69.7,30.06,WSW,243,0.0,4.0,66,0.00,,,0.00,Wunderground v.1.15,2013-06-16 15:43:00,
2013-06-16 11:44:00,82.2,71.0,30.06,SSW,212,2.0,4.0,69,0.00,,,0.00,Wunderground v.1.15,2013-06-16 15:44:00,
2013-06-16 11:46:00,82.3,69.8,30.06,WSW,239,1.0,4.0,66,0.00,,,0.00,Wunderground v.1.15,2013-06-16 15:46:00,
2013-06-16 11:47:00,82.2,70.1,30.06,SW,226,1.0,4.0,67,0.00,,,0.00,Wunderground v.1.15,2013-06-16 15:47:00,
2013-06-16 11:48:00,82.3,70.2,30.07,SW,221,1.0,4.0,67,0.00,,,0.00,Wunderground v.1.15,2013-06-16 15:48:00,
2013-06-16 11:49:00,82.3,69.8,30.07,WSW,255,3.0,4.0,66,0.00,,,0.00,Wunderground v.1.15,2013-06-16 15:49:00,
2013-06-16 11:51:00,82.4,70.3,30.06,SW,233,2.0,5.0,67,0.00,,,0.00,Wunderground v.1.15,2013-06-16 15:51:00,
2013-06-16 11:52:00,82.4,69.9,30.06,WSW,239,3.0,5.0,66,0.00,,,0.00,Wunderground v.1.15,2013-06-16 15:52:00,
2013-06-16 11:53:00,82.3,70.2,30.07,SSW,198,0.0,5.0,67,0.00,,,0.00,Wunderground v.1.15,2013-06-16 15:53:00,
2013-06-16 11:54:00,82.4,70.8,30.07,SW,222,1.0,5.0,68,0.00,,,0.00,Wunderground v.1.15,2013-06-16 15:54:00,
2013-06-16 11:56:00,82.6,70.5,30.06,WSW,256,2.0,5.0,67,0.00,,,0.00,Wunderground v.1.15,2013-06-16 15:56:00,
2013-06-16 11:57:00,82.6,71.0,30.07,SW,234,1.0,6.0,68,0.00,,,0.00,Wunderground v.1.15,2013-06-16 15:57:00,
2013-06-16 11:58:00,82.7,71.1,30.07,South,189,1.0,6.0,68,0.00,,,0.00,Wunderground v.1.15,2013-06-16 15:58:00,
2013-06-16 11:59:00,82.8,70.7,30.06,SW,235,1.0,6.0,67,0.00,,,0.00,Wunderground v.1.15,2013-06-16 15:59:00,
2013-06-16 12:01:00,82.9,70.8,30.06,SSW,210,1.0,2.0,67,0.00,,,0.00,Wunderground v.1.15,2013-06-16 16:01:00,
2013-06-16 12:03:00,83.0,70.9,30.06,WSW,240,1.0,3.0,67,0.00,,,0.00,Wunderground v.1.15,2013-06-16 16:03:00,
2013-06-16 12:04:00,83.1,71.0,30.06,SW,229,1.0,3.0,67,0.00,,,0.00,Wunderground v.1.15,2013-06-16 16:04:00,
2013-06-16 12:06:00,83.3,71.6,30.06,SSW,198,2.0,3.0,68,0.00,,,0.00,Wunderground v.1.15,2013-06-16 16:06:00,
2013-06-16 12:08:00,83.3,69.4,30.06,SW,224,2.0,5.0,63,0.00,,,0.00,Wunderground v.1.15,2013-06-16 16:08:00,
2013-06-16 12:09:00,83.2,70.2,30.06,SW,222,1.0,5.0,65,0.00,,,0.00,Wunderground v.1.15,2013-06-16 16:09:00,
2013-06-16 12:12:00,83.1,69.7,30.06,SW,233,1.0,5.0,64,0.00,,,0.00,Wunderground v.1.15,2013-06-16 16:12:00,
2013-06-16 12:13:00,83.1,69.7,30.06,SW,219,3.0,5.0,64,0.00,,,0.00,Wunderground v.1.15,2013-06-16 16:13:00,
2013-06-16 12:14:00,83.1,69.7,30.06,SW,225,3.0,5.0,64,0.00,,,0.00,Wunderground v.1.15,2013-06-16 16:14:00,
2013-06-16 12:15:00,83.1,70.1,30.06,WSW,254,4.0,5.0,65,0.00,,,0.00,Wunderground v.1.15,2013-06-16 16:15:00,
2013-06-16 12:17:00,82.8,70.3,30.06,WSW,239,4.0,6.0,66,0.00,,,0.00,Wunderground v.1.15,2013-06-16 16:17:00,
2013-06-16 12:19:00,82.7,71.1,30.06,SSW,205,0.0,6.0,68,0.00,,,0.00,Wunderground v.1.15,2013-06-16 16:19:00,
2013-06-16 12:20:00,82.8,70.7,30.06,WSW,243,3.0,3.0,67,0.00,,,0.00,Wunderground v.1.15,2013-06-16 16:20:00,
2013-06-16 12:22:00,82.8,70.3,30.06,SW,224,2.0,5.0,66,0.00,,,0.00,Wunderground v.1.15,2013-06-16 16:22:00,
2013-06-16 12:24:00,82.9,70.4,30.06,SW,215,2.0,5.0,66,0.00,,,0.00,Wunderground v.1.15,2013-06-16 16:24:00,
2013-06-16 12:25:00,82.9,69.9,30.06,West,264,4.0,5.0,65,0.00,,,0.00,Wunderground v.1.15,2013-06-16 16:25:00,
2013-06-16 12:27:00,82.8,69.8,30.06,SSW,203,1.0,7.0,65,0.00,,,0.00,Wunderground v.1.15,2013-06-16 16:27:00,
2013-06-16 12:29:00,82.8,70.3,30.05,WSW,250,3.0,7.0,66,0.00,,,0.00,Wunderground v.1.15,2013-06-16 16:29:00,
2013-06-16 12:30:00,82.9,71.3,30.05,WSW,239,5.0,5.0,68,0.00,,,0.00,Wunderground v.1.15,2013-06-16 16:30:00,
2013-06-16 12:32:00,82.8,70.3,30.05,SSW,204,2.0,6.0,66,0.00,,,0.00,Wunderground v.1.15,2013-06-16 16:32:00,
2013-06-16 12:34:00,82.9,71.3,30.05,SSW,212,1.0,6.0,68,0.00,,,0.00,Wunderground v.1.15,2013-06-16 16:34:00,
2013-06-16 12:35:00,83.0,71.3,30.05,SW,219,4.0,6.0,68,0.00,,,0.00,Wunderground v.1.15,2013-06-16 16:35:00,
2013-06-16 12:37:00,82.8,70.3,30.05,West,262,2.0,6.0,66,0.00,,,0.00,Wunderground v.1.15,2013-06-16 16:37:00,
2013-06-16 12:39:00,82.6,70.1,30.05,SSW,210,2.0,8.0,66,0.00,,,0.00,Wunderground v.1.15,2013-06-16 16:39:00,
2013-06-16 12:40:00,82.7,70.2,30.05,SSW,210,2.0,3.0,66,0.00,,,0.00,Wunderground v.1.15,2013-06-16 16:40:00,
2013-06-16 12:41:00,82.6,70.5,30.05,West,281,4.0,4.0,67,0.00,,,0.00,Wunderground v.1.15,2013-06-16 16:41:00,
2013-06-16 12:42:00,82.5,69.1,30.05,SW,228,1.0,6.0,64,0.00,,,0.00,Wunderground v.1.15,2013-06-16 16:42:00,
2013-06-16 12:45:00,82.4,69.0,30.05,SSW,210,0.0,6.0,64,0.00,,,0.00,Wunderground v.1.15,2013-06-16 16:45:00,
2013-06-16 12:46:00,82.4,70.8,30.05,SSW,197,1.0,6.0,68,0.00,,,0.00,Wunderground v.1.15,2013-06-16 16:46:00,
2013-06-16 12:48:00,82.6,69.2,30.05,WSW,245,3.0,7.0,64,0.00,,,0.00,Wunderground v.1.15,2013-06-16 16:48:00,
2013-06-16 12:50:00,82.4,68.5,30.05,WSW,238,2.0,4.0,63,0.00,,,0.00,Wunderground v.1.15,2013-06-16 16:50:00,
2013-06-16 12:51:00,82.4,69.4,30.05,SSW,212,2.0,5.0,65,0.00,,,0.00,Wunderground v.1.15,2013-06-16 16:51:00,
2013-06-16 12:53:00,82.4,69.4,30.05,West,267,3.0,7.0,65,0.00,,,0.00,Wunderground v.1.15,2013-06-16 16:53:00,
2013-06-16 12:55:00,82.4,71.2,30.05,WSW,252,2.0,7.0,69,0.00,,,0.00,Wunderground v.1.15,2013-06-16 16:55:00,
2013-06-16 12:56:00,82.5,70.0,30.05,West,264,2.0,7.0,66,0.00,,,0.00,Wunderground v.1.15,2013-06-16 16:56:00,
2013-06-16 12:58:00,82.7,70.6,30.04,SSE,166,1.0,7.0,67,0.00,,,0.00,Wunderground v.1.15,2013-06-16 16:58:00,
2013-06-16 13:00:00,82.8,69.8,30.05,SSW,193,2.0,3.0,65,0.00,,,0.00,Wunderground v.1.15,2013-06-16 17:00:00,
2013-06-16 13:01:00,82.9,70.4,30.05,WSW,244,5.0,5.0,66,0.00,,,0.00,Wunderground v.1.15,2013-06-16 17:01:00,
2013-06-16 13:03:00,82.8,69.8,30.04,SSW,212,1.0,5.0,65,0.00,,,0.00,Wunderground v.1.15,2013-06-16 17:03:00,
2013-06-16 13:05:00,82.9,70.4,30.04,SW,228,1.0,5.0,66,0.00,,,0.00,Wunderground v.1.15,2013-06-16 17:05:00,
2013-06-16 13:06:00,83.0,71.3,30.04,SSE,166,2.0,5.0,68,0.00,,,0.00,Wunderground v.1.15,2013-06-16 17:06:00,
2013-06-16 13:09:00,83.2,69.3,30.04,WSW,240,2.0,5.0,63,0.00,,,0.00,Wunderground v.1.15,2013-06-16 17:09:00,
2013-06-16 13:10:00,83.3,70.3,30.04,WSW,246,2.0,4.0,65,0.00,,,0.00,Wunderground v.1.15,2013-06-16 17:10:00,
2013-06-16 13:11:00,83.3,71.2,30.04,SW,221,1.0,4.0,67,0.00,,,0.00,Wunderground v.1.15,2013-06-16 17:11:00,
2013-06-16 13:12:00,83.4,71.7,30.04,South,188,4.0,7.0,68,0.00,,,0.00,Wunderground v.1.15,2013-06-16 17:12:00,
2013-06-16 13:14:00,83.6,70.6,30.04,SSW,198,1.0,7.0,65,0.00,,,0.00,Wunderground v.1.15,2013-06-16 17:14:00,
2013-06-16 13:16:00,83.8,70.3,30.04,SSW,205,3.0,7.0,64,0.00,,,0.00,Wunderground v.1.15,2013-06-16 17:16:00,
2013-06-16 13:17:00,83.8,69.9,30.04,SSW,205,2.0,7.0,63,0.00,,,0.00,Wunderground v.1.15,2013-06-16 17:17:00,
2013-06-16 13:20:00,83.6,69.2,30.04,WSW,243,1.0,3.0,62,0.00,,,0.00,Wunderground v.1.15,2013-06-16 17:20:00,
2013-06-16 13:21:00,83.5,70.0,30.04,SW,222,1.0,4.0,64,0.00,,,0.00,Wunderground v.1.15,2013-06-16 17:21:00,
2013-06-16 13:22:00,83.5,70.9,30.04,SW,235,2.0,4.0,66,0.00,,,0.00,Wunderground v.1.15,2013-06-16 17:22:00,
2013-06-16 13:25:00,83.6,70.6,30.04,SSW,207,2.0,4.0,65,0.00,,,0.00,Wunderground v.1.15,2013-06-16 17:25:00,
2013-06-16 13:26:00,83.7,71.6,30.04,SSW,200,1.0,4.0,67,0.00,,,0.00,Wunderground v.1.15,2013-06-16 17:26:00,
2013-06-16 13:27:00,83.8,71.7,30.04,SW,219,1.0,4.0,67,0.00,,,0.00,Wunderground v.1.15,2013-06-16 17:27:00,
2013-06-16 13:30:00,84.2,70.7,30.04,West,262,1.0,2.0,64,0.00,,,0.00,Wunderground v.1.15,2013-06-16 17:30:00,
2013-06-16 13:32:00,84.4,70.4,30.04,SSW,212,3.0,3.0,63,0.00,,,0.00,Wunderground v.1.15,2013-06-16 17:32:00,
2013-06-16 13:33:00,84.5,71.4,30.04,SSW,201,2.0,3.0,65,0.00,,,0.00,Wunderground v.1.15,2013-06-16 17:33:00,
2013-06-16 13:35:00,84.3,68.9,30.04,SW,232,3.0,8.0,60,0.00,,,0.00,Wunderground v.1.15,2013-06-16 17:35:00,
2013-06-16 13:37:00,84.0,68.6,30.04,SW,221,5.0,8.0,60,0.00,,,0.00,Wunderground v.1.15,2013-06-16 17:37:00,
2013-06-16 13:38:00,83.8,69.4,30.03,SW,214,2.0,8.0,62,0.00,,,0.00,Wunderground v.1.15,2013-06-16 17:38:00,
2013-06-16 13:41:00,83.7,68.8,30.03,WSW,239,4.0,5.0,61,0.00,,,0.00,Wunderground v.1.15,2013-06-16 17:41:00,
2013-06-16 13:42:00,83.7,69.3,30.03,WSW,240,1.0,5.0,62,0.00,,,0.00,Wunderground v.1.15,2013-06-16 17:42:00,
2013-06-16 13:43:00,83.7,69.3,30.03,SW,221,1.0,5.0,62,0.00,,,0.00,Wunderground v.1.15,2013-06-16 17:43:00,
2013-06-16 13:46:00,83.8,68.9,30.03,WSW,257,1.0,5.0,61,0.00,,,0.00,Wunderground v.1.15,2013-06-16 17:46:00,
2013-06-16 13:47:00,84.0,69.6,30.03,SW,222,5.0,6.0,62,0.00,,,0.00,Wunderground v.1.15,2013-06-16 17:47:00,
2013-06-16 13:48:00,84.0,69.1,30.03,SSW,212,1.0,6.0,61,0.00,,,0.00,Wunderground v.1.15,2013-06-16 17:48:00,
2013-06-16 13:49:00,84.0,69.1,30.03,SSW,212,1.0,6.0,61,0.00,,,0.00,Wunderground v.1.15,2013-06-16 17:49:00,
2013-06-16 13:51:00,84.2,69.3,30.03,SW,225,3.0,3.0,61,0.00,,,0.00,Wunderground v.1.15,2013-06-16 17:51:00,
2013-06-16 13:52:00,84.3,67.9,30.03,WSW,246,1.0,4.0,58,0.00,,,0.00,Wunderground v.1.15,2013-06-16 17:52:00,
2013-06-16 13:53:00,84.4,70.9,30.03,West,259,1.0,4.0,64,0.00,,,0.00,Wunderground v.1.15,2013-06-16 17:53:00,
2013-06-16 13:56:00,84.6,69.7,30.03,WSW,242,3.0,7.0,61,0.00,,,0.00,Wunderground v.1.15,2013-06-16 17:56:00,
2013-06-16 13:57:00,84.4,69.5,30.03,SSW,212,3.0,11.0,61,0.00,,,0.00,Wunderground v.1.15,2013-06-16 17:57:00,
2013-06-16 13:59:00,84.0,69.1,30.03,SW,226,4.0,11.0,61,0.00,,,0.00,Wunderground v.1.15,2013-06-16 17:59:00,
2013-06-16 14:01:00,83.7,69.3,30.02,SW,219,1.0,3.0,62,0.00,,,0.00,Wunderground v.1.15,2013-06-16 18:01:00,
2013-06-16 14:02:00,83.8,71.2,30.02,West,260,1.0,3.0,66,0.00,,,0.00,Wunderground v.1.15,2013-06-16 18:02:00,
2013-06-16 14:04:00,83.8,69.4,30.02,WSW,238,1.0,5.0,62,0.00,,,0.00,Wunderground v.1.15,2013-06-16 18:04:00,
2013-06-16 14:06:00,84.2,70.7,30.02,SW,219,1.0,5.0,64,0.00,,,0.00,Wunderground v.1.15,2013-06-16 18:06:00,
2013-06-16 14:07:00,84.5,70.5,30.02,WSW,257,4.0,5.0,63,0.00,,,0.00,Wunderground v.1.15,2013-06-16 18:07:00,
2013-06-16 14:08:00,84.5,70.5,30.02,SW,218,3.0,5.0,63,0.00,,,0.00,Wunderground v.1.15,2013-06-16 18:08:00,
2013-06-16 14:09:00,84.5,69.1,30.02,SW,218,3.0,5.0,60,0.00,,,0.00,Wunderground v.1.15,2013-06-16 18:09:00,
2013-06-16 14:10:00,84.5,69.1,30.02,WSW,238,2.0,3.0,60,0.00,,,0.00,Wunderground v.1.15,2013-06-16 18:10:00,
2013-06-16 14:11:00,84.4,69.5,30.02,SSW,211,4.0,4.0,61,0.00,,,0.00,Wunderground v.1.15,2013-06-16 18:11:00,
2013-06-16 14:12:00,84.3,70.3,30.02,SW,232,5.0,8.0,63,0.00,,,0.00,Wunderground v.1.15,2013-06-16 18:12:00,
2013-06-16 14:13:00,84.4,69.0,30.02,SW,218,3.0,8.0,60,0.00,,,0.00,Wunderground v.1.15,2013-06-16 18:13:00,
2013-06-16 14:14:00,84.3,68.9,30.02,SW,217,1.0,8.0,60,0.00,,,0.00,Wunderground v.1.15,2013-06-16 18:14:00,
2013-06-16 14:15:00,84.4,70.4,30.02,SW,225,0.0,8.0,63,0.00,,,0.00,Wunderground v.1.15,2013-06-16 18:15:00,
2013-06-16 14:17:00,84.4,69.0,30.02,WSW,243,1.0,8.0,60,0.00,,,0.00,Wunderground v.1.15,2013-06-16 18:17:00,
2013-06-16 14:18:00,84.5,70.5,30.02,South,184,2.0,8.0,63,0.00,,,0.00,Wunderground v.1.15,2013-06-16 18:18:00,
2013-06-16 14:19:00,84.5,69.1,30.02,SW,235,4.0,8.0,60,0.00,,,0.00,Wunderground v.1.15,2013-06-16 18:19:00,
2013-06-16 14:20:00,84.5,69.1,30.02,SW,228,2.0,4.0,60,0.00,,,0.00,Wunderground v.1.15,2013-06-16 18:20:00,
2013-06-16 14:22:00,84.6,69.7,30.02,SSW,205,1.0,4.0,61,0.00,,,0.00,Wunderground v.1.15,2013-06-16 18:22:00,
2013-06-16 14:23:00,84.6,69.7,30.02,SSW,205,1.0,4.0,61,0.00,,,0.00,Wunderground v.1.15,2013-06-16 18:23:00,
2013-06-16 14:24:00,84.7,70.2,30.02,WSW,243,4.0,4.0,62,0.00,,,0.00,Wunderground v.1.15,2013-06-16 18:24:00,
2013-06-16 14:26:00,84.8,68.9,30.02,SW,222,4.0,9.0,59,0.00,,,0.00,Wunderground v.1.15,2013-06-16 18:26:00,
2013-06-16 14:27:00,84.6,70.1,30.02,SSW,212,1.0,9.0,62,0.00,,,0.00,Wunderground v.1.15,2013-06-16 18:27:00,
2013-06-16 14:28:00,84.6,70.1,30.02,South,184,1.0,9.0,62,0.00,,,0.00,Wunderground v.1.15,2013-06-16 18:28:00,
2013-06-16 14:29:00,84.7,69.8,30.02,SE,140,0.0,9.0,61,0.00,,,0.00,Wunderground v.1.15,2013-06-16 18:29:00,
2013-06-16 14:31:00,84.9,70.9,30.02,SW,225,2.0,2.0,63,0.00,,,0.00,Wunderground v.1.15,2013-06-16 18:31:00,
2013-06-16 14:32:00,84.9,69.5,30.02,South,187,2.0,5.0,60,0.00,,,0.00,Wunderground v.1.15,2013-06-16 18:32:00,
2013-06-16 14:33:00,84.9,69.5,30.02,SSW,198,1.0,5.0,60,0.00,,,0.00,Wunderground v.1.15,2013-06-16 18:33:00,
2013-06-16 14:34:00,84.9,68.5,30.02,SSW,212,1.0,5.0,58,0.00,,,0.00,Wunderground v.1.15,2013-06-16 18:34:00,
2013-06-16 14:36:00,84.9,68.5,30.02,SW,225,3.0,5.0,58,0.00,,,0.00,Wunderground v.1.15,2013-06-16 18:36:00,
2013-06-16 14:37:00,84.9,69.0,30.02,SSW,203,2.0,5.0,59,0.00,,,0.00,Wunderground v.1.15,2013-06-16 18:37:00,
2013-06-16 14:38:00,84.7,68.3,30.02,SW,226,4.0,7.0,58,0.00,,,0.00,Wunderground v.1.15,2013-06-16 18:38:00,
2013-06-16 14:40:00,84.4,68.5,30.02,SSW,207,2.0,2.0,59,0.00,,,0.00,Wunderground v.1.15,2013-06-16 18:40:00,
2013-06-16 14:41:00,84.2,68.3,30.02,SW,219,2.0,4.0,59,0.00,,,0.00,Wunderground v.1.15,2013-06-16 18:41:00,
2013-06-16 14:42:00,84.0,68.1,30.02,SW,228,3.0,4.0,59,0.00,,,0.00,Wunderground v.1.15,2013-06-16 18:42:00,
2013-06-16 14:44:00,84.0,68.6,30.01,WSW,238,3.0,6.0,60,0.00,,,0.00,Wunderground v.1.15,2013-06-16 18:44:00,
2013-06-16 14:45:00,84.0,68.6,30.01,SW,225,3.0,7.0,60,0.00,,,0.00,Wunderground v.1.15,2013-06-16 18:45:00,
2013-06-16 14:46:00,84.0,68.6,30.01,SSW,195,1.0,7.0,60,0.00,,,0.00,Wunderground v.1.15,2013-06-16 18:46:00,
2013-06-16 14:47:00,84.1,69.2,30.01,SW,235,2.0,7.0,61,0.00,,,0.00,Wunderground v.1.15,2013-06-16 18:47:00,
2013-06-16 14:50:00,84.3,69.9,30.01,WSW,249,3.0,3.0,62,0.00,,,0.00,Wunderground v.1.15,2013-06-16 18:50:00,
2013-06-16 14:51:00,84.4,68.5,30.01,SW,229,2.0,7.0,59,0.00,,,0.00,Wunderground v.1.15,2013-06-16 18:51:00,
2013-06-16 14:52:00,84.4,69.5,30.01,West,274,1.0,7.0,61,0.00,,,0.00,Wunderground v.1.15,2013-06-16 18:52:00,
2013-06-16 14:55:00,84.6,70.6,30.01,SW,230,2.0,7.0,63,0.00,,,0.00,Wunderground v.1.15,2013-06-16 18:55:00,
2013-06-16 14:56:00,84.7,69.8,30.01,WSW,238,3.0,7.0,61,0.00,,,0.00,Wunderground v.1.15,2013-06-16 18:56:00,
2013-06-16 14:57:00,84.7,69.3,30.01,SW,217,0.0,7.0,60,0.00,,,0.00,Wunderground v.1.15,2013-06-16 18:57:00,
2013-06-16 15:00:00,84.5,69.1,30.01,SSW,196,2.0,5.0,60,0.00,,,0.00,Wunderground v.1.15,2013-06-16 19:00:00,
2013-06-16 15:01:00,84.4,70.0,30.01,SSW,195,1.0,5.0,62,0.00,,,0.00,Wunderground v.1.15,2013-06-16 19:01:00,
2013-06-16 15:02:00,84.4,70.0,30.01,SSW,194,1.0,5.0,62,0.00,,,0.00,Wunderground v.1.15,2013-06-16 19:02:00,
2013-06-16 15:05:00,84.4,69.5,30.01,SW,227,3.0,7.0,61,0.00,,,0.00,Wunderground v.1.15,2013-06-16 19:05:00,
2013-06-16 15:06:00,84.4,69.0,30.01,WSW,243,4.0,7.0,60,0.00,,,0.00,Wunderground v.1.15,2013-06-16 19:06:00,
2013-06-16 15:07:00,84.4,69.0,30.01,WSW,242,3.0,7.0,60,0.00,,,0.00,Wunderground v.1.15,2013-06-16 19:07:00,
2013-06-16 15:11:00,84.1,70.1,30.01,SW,232,2.0,3.0,63,0.00,,,0.00,Wunderground v.1.15,2013-06-16 19:11:00,
2013-06-16 15:12:00,84.1,70.6,30.01,SW,217,1.0,3.0,64,0.00,,,0.00,Wunderground v.1.15,2013-06-16 19:12:00,
2013-06-16 15:16:00,84.4,70.4,30.00,SW,214,1.0,5.0,63,0.00,,,0.00,Wunderground v.1.15,2013-06-16 19:16:00,
2013-06-16 15:17:00,84.6,70.1,30.00,SW,219,2.0,5.0,62,0.00,,,0.00,Wunderground v.1.15,2013-06-16 19:17:00,
2013-06-16 15:18:00,84.7,70.2,30.01,South,183,0.0,5.0,62,0.00,,,0.00,Wunderground v.1.15,2013-06-16 19:18:00,
2013-06-16 15:21:00,84.9,68.5,30.00,WSW,257,3.0,3.0,58,0.00,,,0.00,Wunderground v.1.15,2013-06-16 19:21:00,
2013-06-16 15:22:00,84.6,68.7,30.00,SW,228,2.0,6.0,59,0.00,,,0.00,Wunderground v.1.15,2013-06-16 19:22:00,
2013-06-16 15:23:00,84.5,68.6,30.00,WSW,239,2.0,6.0,59,0.00,,,0.00,Wunderground v.1.15,2013-06-16 19:23:00,
2013-06-16 15:26:00,83.8,67.4,30.00,WSW,242,3.0,9.0,58,0.00,,,0.00,Wunderground v.1.15,2013-06-16 19:26:00,
2013-06-16 15:27:00,83.6,68.2,30.00,SW,235,3.0,9.0,60,0.00,,,0.00,Wunderground v.1.15,2013-06-16 19:27:00,
2013-06-16 15:28:00,83.6,69.2,30.00,SW,232,3.0,9.0,62,0.00,,,0.00,Wunderground v.1.15,2013-06-16 19:28:00,
2013-06-16 15:31:00,83.6,68.2,30.00,South,188,1.0,6.0,60,0.00,,,0.00,Wunderground v.1.15,2013-06-16 19:31:00,
2013-06-16 15:32:00,83.7,69.3,30.00,WSW,246,0.0,6.0,62,0.00,,,0.00,Wunderground v.1.15,2013-06-16 19:32:00,
2013-06-16 15:33:00,83.7,69.3,30.00,SSW,195,2.0,6.0,62,0.00,,,0.00,Wunderground v.1.15,2013-06-16 19:33:00,
2013-06-16 15:34:00,83.8,68.9,30.00,SSW,195,1.0,6.0,61,0.00,,,0.00,Wunderground v.1.15,2013-06-16 19:34:00,
2013-06-16 15:36:00,84.1,69.7,30.00,SSW,200,2.0,6.0,62,0.00,,,0.00,Wunderground v.1.15,2013-06-16 19:36:00,
2013-06-16 15:37:00,84.2,69.3,30.00,South,191,2.0,6.0,61,0.00,,,0.00,Wunderground v.1.15,2013-06-16 19:37:00,
2013-06-16 15:38:00,84.2,69.3,30.00,SW,214,1.0,6.0,61,0.00,,,0.00,Wunderground v.1.15,2013-06-16 19:38:00,
2013-06-16 15:39:00,84.4,69.0,30.00,SW,218,1.0,6.0,60,0.00,,,0.00,Wunderground v.1.15,2013-06-16 19:39:00,
2013-06-16 15:41:00,84.5,68.6,30.00,SW,220,3.0,4.0,59,0.00,,,0.00,Wunderground v.1.15,2013-06-16 19:41:00,
2013-06-16 15:42:00,84.4,69.0,30.00,West,262,2.0,4.0,60,0.00,,,0.00,Wunderground v.1.15,2013-06-16 19:42:00,
2013-06-16 15:44:00,84.5,69.1,29.99,SW,231,2.0,4.0,60,0.00,,,0.00,Wunderground v.1.15,2013-06-16 19:44:00,
2013-06-16 15:47:00,84.6,69.2,29.99,SSW,212,2.0,5.0,60,0.00,,,0.00,Wunderground v.1.15,2013-06-16 19:47:00,
2013-06-16 15:49:00,84.5,68.6,29.99,SSW,207,2.0,6.0,59,0.00,,,0.00,Wunderground v.1.15,2013-06-16 19:49:00,
2013-06-16 15:50:00,84.5,68.6,29.99,WSW,240,3.0,3.0,59,0.00,,,0.00,Wunderground v.1.15,2013-06-16 19:50:00,
2013-06-16 15:52:00,84.4,69.0,30.00,West,262,1.0,6.0,60,0.00,,,0.00,Wunderground v.1.15,2013-06-16 19:52:00,
2013-06-16 15:53:00,84.4,69.0,30.00,WSW,240,2.0,6.0,60,0.00,,,0.00,Wunderground v.1.15,2013-06-16 19:53:00,
2013-06-16 15:54:00,84.4,69.0,30.00,WSW,258,2.0,6.0,60,0.00,,,0.00,Wunderground v.1.15,2013-06-16 19:54:00,
2013-06-16 15:55:00,84.4,69.5,30.00,SW,221,1.0,6.0,61,0.00,,,0.00,Wunderground v.1.15,2013-06-16 19:55:00,
2013-06-16 15:57:00,84.4,69.0,30.00,WSW,238,1.0,6.0,60,0.00,,,0.00,Wunderground v.1.15,2013-06-16 19:57:00,
2013-06-16 15:58:00,84.4,69.5,30.00,SW,214,2.0,6.0,61,0.00,,,0.00,Wunderground v.1.15,2013-06-16 19:58:00,
2013-06-16 15:59:00,84.5,69.1,30.00,SSW,209,1.0,6.0,60,0.00,,,0.00,Wunderground v.1.15,2013-06-16 19:59:00,
2013-06-16 16:00:00,84.5,69.1,30.00,SW,225,7.0,7.0,60,0.00,,,0.00,Wunderground v.1.15,2013-06-16 20:00:00,
2013-06-16 16:01:00,84.5,69.1,30.00,SW,232,5.0,7.0,60,0.00,,,0.00,Wunderground v.1.15,2013-06-16 20:01:00,
2013-06-16 16:02:00,84.5,67.6,30.00,SSW,194,3.0,8.0,57,0.00,,,0.00,Wunderground v.1.15,2013-06-16 20:02:00,
2013-06-16 16:04:00,84.2,67.3,30.00,WSW,238,3.0,8.0,57,0.00,,,0.00,Wunderground v.1.15,2013-06-16 20:04:00,
2013-06-16 16:05:00,84.1,68.2,30.00,WSW,250,2.0,8.0,59,0.00,,,0.00,Wunderground v.1.15,2013-06-16 20:05:00,
2013-06-16 16:06:00,83.8,68.4,30.00,SW,217,0.0,8.0,60,0.00,,,0.00,Wunderground v.1.15,2013-06-16 20:06:00,
2013-06-16 16:07:00,83.8,68.4,30.00,SW,229,2.0,8.0,60,0.00,,,0.00,Wunderground v.1.15,2013-06-16 20:07:00,
2013-06-16 16:09:00,83.7,68.8,30.00,WSW,257,0.0,8.0,61,0.00,,,0.00,Wunderground v.1.15,2013-06-16 20:09:00,
2013-06-16 16:10:00,83.8,69.4,30.00,West,264,3.0,4.0,62,0.00,,,0.00,Wunderground v.1.15,2013-06-16 20:10:00,
2013-06-16 16:11:00,83.8,67.9,30.00,WSW,257,1.0,5.0,59,0.00,,,0.00,Wunderground v.1.15,2013-06-16 20:11:00,
2013-06-16 16:13:00,83.9,68.5,30.00,SW,214,4.0,5.0,60,0.00,,,0.00,Wunderground v.1.15,2013-06-16 20:13:00,
2013-06-16 16:14:00,84.0,68.1,30.00,West,276,4.0,6.0,59,0.00,,,0.00,Wunderground v.1.15,2013-06-16 20:14:00,
2013-06-16 16:15:00,84.0,68.6,30.00,WSW,244,5.0,8.0,60,0.00,,,0.00,Wunderground v.1.15,2013-06-16 20:15:00,
2013-06-16 16:16:00,83.9,67.5,30.00,SSW,203,2.0,10.0,58,0.00,,,0.00,Wunderground v.1.15,2013-06-16 20:16:00,
2013-06-16 16:18:00,83.8,67.9,30.00,WSW,240,2.0,10.0,59,0.00,,,0.00,Wunderground v.1.15,2013-06-16 20:18:00,
2013-06-16 16:19:00,83.8,68.9,30.00,NW,309,3.0,10.0,61,0.00,,,0.00,Wunderground v.1.15,2013-06-16 20:19:00,
2013-06-16 16:20:00,83.8,68.9,29.99,WSW,257,4.0,6.0,61,0.00,,,0.00,Wunderground v.1.15,2013-06-16 20:20:00,
2013-06-16 16:21:00,83.8,68.9,29.99,SW,229,3.0,6.0,61,0.00,,,0.00,Wunderground v.1.15,2013-06-16 20:21:00,
2013-06-16 16:23:00,83.9,69.0,29.99,South,191,0.0,6.0,61,0.00,,,0.00,Wunderground v.1.15,2013-06-16 20:23:00,
2013-06-16 16:25:00,83.9,68.0,30.00,WSW,245,6.0,7.0,59,0.00,,,0.00,Wunderground v.1.15,2013-06-16 20:25:00,
2013-06-16 16:26:00,83.9,68.0,29.99,SW,214,5.0,7.0,59,0.00,,,0.00,Wunderground v.1.15,2013-06-16 20:26:00,
2013-06-16 16:27:00,83.8,68.4,29.99,SSW,200,3.0,7.0,60,0.00,,,0.00,Wunderground v.1.15,2013-06-16 20:27:00,
2013-06-16 16:29:00,83.8,67.9,29.99,SW,224,6.0,7.0,59,0.00,,,0.00,Wunderground v.1.15,2013-06-16 20:29:00,
2013-06-16 16:30:00,83.8,68.4,29.99,SW,215,2.0,5.0,60,0.00,,,0.00,Wunderground v.1.15,2013-06-16 20:30:00,
2013-06-16 16:31:00,83.8,67.9,29.99,WSW,252,3.0,5.0,59,0.00,,,0.00,Wunderground v.1.15,2013-06-16 20:31:00,
2013-06-16 16:32:00,83.7,67.8,29.99,WSW,256,2.0,5.0,59,0.00,,,0.00,Wunderground v.1.15,2013-06-16 20:32:00,
2013-06-16 16:34:00,83.6,68.2,30.00,SW,214,2.0,5.0,60,0.00,,,0.00,Wunderground v.1.15,2013-06-16 20:34:00,
2013-06-16 16:36:00,83.5,68.2,29.99,SW,235,2.0,5.0,60,0.00,,,0.00,Wunderground v.1.15,2013-06-16 20:36:00,
2013-06-16 16:37:00,83.5,68.6,29.99,SW,218,3.0,5.0,61,0.00,,,0.00,Wunderground v.1.15,2013-06-16 20:37:00,
2013-06-16 16:39:00,83.4,68.5,29.99,SW,233,2.0,5.0,61,0.00,,,0.00,Wunderground v.1.15,2013-06-16 20:39:00,
2013-06-16 16:41:00,83.4,68.5,29.99,WSW,253,2.0,3.0,61,0.00,,,0.00,Wunderground v.1.15,2013-06-16 20:41:00,
2013-06-16 16:42:00,83.3,68.0,29.99,SW,225,3.0,3.0,60,0.00,,,0.00,Wunderground v.1.15,2013-06-16 20:42:00,
2013-06-16 16:44:00,83.2,68.8,29.99,SW,231,0.0,3.0,62,0.00,,,0.00,Wunderground v.1.15,2013-06-16 20:44:00,
2013-06-16 16:46:00,83.1,67.3,29.99,NW,307,2.0,7.0,59,0.00,,,0.00,Wunderground v.1.15,2013-06-16 20:46:00,
2013-06-16 16:47:00,83.1,67.8,29.99,SSW,204,1.0,7.0,60,0.00,,,0.00,Wunderground v.1.15,2013-06-16 20:47:00,
2013-06-16 16:50:00,83.0,67.7,29.99,SW,217,1.0,5.0,60,0.00,,,0.00,Wunderground v.1.15,2013-06-16 20:50:00,
2013-06-16 16:51:00,83.0,67.2,29.99,SW,231,1.0,5.0,59,0.00,,,0.00,Wunderground v.1.15,2013-06-16 20:51:00,
2013-06-16 16:52:00,83.0,67.7,29.99,SSW,200,1.0,5.0,60,0.00,,,0.00,Wunderground v.1.15,2013-06-16 20:52:00,
2013-06-16 16:55:00,83.3,68.4,29.99,SW,228,3.0,5.0,61,0.00,,,0.00,Wunderground v.1.15,2013-06-16 20:55:00,
2013-06-16 16:56:00,83.4,68.1,29.99,SW,217,1.0,5.0,60,0.00,,,0.00,Wunderground v.1.15,2013-06-16 20:56:00,
2013-06-16 16:57:00,83.4,68.1,29.99,SW,235,2.0,5.0,60,0.00,,,0.00,Wunderground v.1.15,2013-06-16 20:57:00,
2013-06-16 17:00:00,83.6,67.8,29.99,SW,225,2.0,3.0,59,0.00,,,0.00,Wunderground v.1.15,2013-06-16 21:00:00,
2013-06-16 17:01:00,83.6,67.3,29.99,WSW,244,4.0,5.0,58,0.00,,,0.00,Wunderground v.1.15,2013-06-16 21:01:00,
2013-06-16 17:02:00,83.6,67.8,29.99,WSW,253,5.0,5.0,59,0.00,,,0.00,Wunderground v.1.15,2013-06-16 21:02:00,
2013-06-16 17:05:00,83.4,66.6,29.99,SW,215,2.0,7.0,57,0.00,,,0.00,Wunderground v.1.15,2013-06-16 21:05:00,
2013-06-16 17:06:00,83.3,67.0,29.99,South,183,1.0,7.0,58,0.00,,,0.00,Wunderground v.1.15,2013-06-16 21:06:00,
2013-06-16 17:07:00,83.4,68.1,29.99,SW,221,1.0,7.0,60,0.00,,,0.00,Wunderground v.1.15,2013-06-16 21:07:00,
2013-06-16 17:10:00,83.5,68.2,29.99,SW,229,4.0,5.0,60,0.00,,,0.00,Wunderground v.1.15,2013-06-16 21:10:00,
2013-06-16 17:12:00,83.6,68.2,29.99,SSW,198,1.0,5.0,60,0.00,,,0.00,Wunderground v.1.15,2013-06-16 21:12:00,
2013-06-16 17:15:00,83.7,67.4,29.99,SSW,201,1.0,5.0,58,0.00,,,0.00,Wunderground v.1.15,2013-06-16 21:15:00,
2013-06-16 17:17:00,83.7,67.8,29.99,SSW,212,1.0,5.0,59,0.00,,,0.00,Wunderground v.1.15,2013-06-16 21:17:00,
2013-06-16 17:18:00,83.7,67.8,29.99,SSW,212,1.0,5.0,59,0.00,,,0.00,Wunderground v.1.15,2013-06-16 21:18:00,
2013-06-16 17:21:00,83.8,68.4,29.99,SW,232,2.0,4.0,60,0.00,,,0.00,Wunderground v.1.15,2013-06-16 21:21:00,
2013-06-16 17:22:00,83.8,67.4,29.99,SW,225,6.0,6.0,58,0.00,,,0.00,Wunderground v.1.15,2013-06-16 21:22:00,
2013-06-16 17:23:00,83.8,67.4,29.99,SSW,212,3.0,6.0,58,0.00,,,0.00,Wunderground v.1.15,2013-06-16 21:23:00,
2013-06-16 17:26:00,83.6,67.3,29.99,WSW,250,2.0,7.0,58,0.00,,,0.00,Wunderground v.1.15,2013-06-16 21:26:00,
2013-06-16 17:27:00,83.5,66.7,29.99,SW,218,1.0,7.0,57,0.00,,,0.00,Wunderground v.1.15,2013-06-16 21:27:00,
2013-06-16 17:28:00,83.5,66.7,29.99,SW,218,1.0,7.0,57,0.00,,,0.00,Wunderground v.1.15,2013-06-16 21:28:00,
2013-06-16 17:31:00,83.6,67.3,29.99,WSW,246,1.0,3.0,58,0.00,,,0.00,Wunderground v.1.15,2013-06-16 21:31:00,
2013-06-16 17:33:00,83.5,66.7,29.99,SSW,200,2.0,7.0,57,0.00,,,0.00,Wunderground v.1.15,2013-06-16 21:33:00,
2013-06-16 17:34:00,83.5,66.7,29.99,SSW,210,1.0,7.0,57,0.00,,,0.00,Wunderground v.1.15,2013-06-16 21:34:00,
2013-06-16 17:36:00,83.4,66.6,29.99,SW,232,2.0,7.0,57,0.00,,,0.00,Wunderground v.1.15,2013-06-16 21:36:00,
2013-06-16 17:38:00,83.4,67.1,29.99,WSW,240,1.0,7.0,58,0.00,,,0.00,Wunderground v.1.15,2013-06-16 21:38:00,
2013-06-16 17:39:00,83.4,67.1,29.99,SW,218,1.0,7.0,58,0.00,,,0.00,Wunderground v.1.15,2013-06-16 21:39:00,
2013-06-16 17:42:00,83.4,67.1,29.99,WSW,250,4.0,5.0,58,0.00,,,0.00,Wunderground v.1.15,2013-06-16 21:42:00,
2013-06-16 17:43:00,83.4,66.6,29.99,SSW,210,1.0,5.0,57,0.00,,,0.00,Wunderground v.1.15,2013-06-16 21:43:00,
2013-06-16 17:45:00,83.4,67.6,29.99,SSW,193,0.0,5.0,59,0.00,,,0.00,Wunderground v.1.15,2013-06-16 21:45:00,
2013-06-16 17:47:00,83.3,67.5,29.99,WSW,250,4.0,6.0,59,0.00,,,0.00,Wunderground v.1.15,2013-06-16 21:47:00,
2013-06-16 17:49:00,83.2,67.4,29.99,WSW,250,1.0,6.0,59,0.00,,,0.00,Wunderground v.1.15,2013-06-16 21:49:00,
2013-06-16 17:50:00,83.2,67.9,29.99,SSW,211,1.0,4.0,60,0.00,,,0.00,Wunderground v.1.15,2013-06-16 21:50:00,
2013-06-16 17:52:00,83.1,67.3,29.99,WSW,245,1.0,4.0,59,0.00,,,0.00,Wunderground v.1.15,2013-06-16 21:52:00,
2013-06-16 17:54:00,83.1,67.3,29.99,WSW,258,4.0,5.0,59,0.00,,,0.00,Wunderground v.1.15,2013-06-16 21:54:00,
2013-06-16 17:55:00,83.0,67.2,29.99,SW,217,2.0,5.0,59,0.00,,,0.00,Wunderground v.1.15,2013-06-16 21:55:00,
2013-06-16 17:58:00,83.0,67.7,29.99,WSW,258,3.0,5.0,60,0.00,,,0.00,Wunderground v.1.15,2013-06-16 21:58:00,
2013-06-16 17:59:00,83.0,68.2,29.99,SW,232,0.0,5.0,61,0.00,,,0.00,Wunderground v.1.15,2013-06-16 21:59:00,
2013-06-16 18:00:00,82.9,68.1,29.99,SSW,200,4.0,5.0,61,0.00,,,0.00,Wunderground v.1.15,2013-06-16 22:00:00,
2013-06-16 18:03:00,82.9,67.6,29.98,SW,217,2.0,5.0,60,0.00,,,0.00,Wunderground v.1.15,2013-06-16 22:03:00,
2013-06-16 18:04:00,82.9,68.1,29.98,SW,225,1.0,5.0,61,0.00,,,0.00,Wunderground v.1.15,2013-06-16 22:04:00,
2013-06-16 18:06:00,82.8,68.0,29.99,WSW,239,2.0,5.0,61,0.00,,,0.00,Wunderground v.1.15,2013-06-16 22:06:00,
2013-06-16 18:08:00,82.7,68.4,29.98,SW,224,3.0,5.0,62,0.00,,,0.00,Wunderground v.1.15,2013-06-16 22:08:00,
2013-06-16 18:09:00,82.6,68.3,29.98,SW,221,3.0,5.0,62,0.00,,,0.00,Wunderground v.1.15,2013-06-16 22:09:00,
2013-06-16 18:11:00,82.6,68.3,29.98,SSW,200,2.0,4.0,62,0.00,,,0.00,Wunderground v.1.15,2013-06-16 22:11:00,
2013-06-16 18:14:00,82.4,67.6,29.98,SW,221,0.0,4.0,61,0.00,,,0.00,Wunderground v.1.15,2013-06-16 22:14:00,
2013-06-16 18:15:00,82.5,68.2,29.98,SSW,206,1.0,4.0,62,0.00,,,0.00,Wunderground v.1.15,2013-06-16 22:15:00,
2013-06-16 18:16:00,82.5,68.2,29.98,SW,215,2.0,4.0,62,0.00,,,0.00,Wunderground v.1.15,2013-06-16 22:16:00,
2013-06-16 18:20:00,82.5,67.7,29.98,SW,236,2.0,3.0,61,0.00,,,0.00,Wunderground v.1.15,2013-06-16 22:20:00,
2013-06-16 18:21:00,82.5,67.7,29.98,SW,230,2.0,3.0,61,0.00,,,0.00,Wunderground v.1.15,2013-06-16 22:21:00,
2013-06-16 18:22:00,82.4,67.6,29.98,WSW,245,1.0,3.0,61,0.00,,,0.00,Wunderground v.1.15,2013-06-16 22:22:00,
2013-06-16 18:25:00,82.4,67.1,29.98,SSW,197,1.0,4.0,60,0.00,,,0.00,Wunderground v.1.15,2013-06-16 22:25:00,
2013-06-16 18:26:00,82.4,67.6,29.98,SW,226,2.0,4.0,61,0.00,,,0.00,Wunderground v.1.15,2013-06-16 22:26:00,
2013-06-16 18:27:00,82.3,67.0,29.98,SW,232,6.0,7.0,60,0.00,,,0.00,Wunderground v.1.15,2013-06-16 22:27:00,
2013-06-16 18:30:00,82.1,67.8,29.98,SSW,211,2.0,3.0,62,0.00,,,0.00,Wunderground v.1.15,2013-06-16 22:30:00,
2013-06-16 18:31:00,82.0,67.7,29.98,SSW,201,1.0,3.0,62,0.00,,,0.00,Wunderground v.1.15,2013-06-16 22:31:00,
2013-06-16 18:32:00,81.9,66.6,29.98,WSW,248,1.0,4.0,60,0.00,,,0.00,Wunderground v.1.15,2013-06-16 22:32:00,
2013-06-16 18:35:00,81.7,66.9,29.98,WSW,249,3.0,5.0,61,0.00,,,0.00,Wunderground v.1.15,2013-06-16 22:35:00,
2013-06-16 18:36:00,81.5,66.8,29.98,WSW,250,3.0,5.0,61,0.00,,,0.00,Wunderground v.1.15,2013-06-16 22:36:00,
2013-06-16 18:37:00,81.5,66.8,29.98,SW,225,3.0,5.0,61,0.00,,,0.00,Wunderground v.1.15,2013-06-16 22:37:00,
2013-06-16 18:40:00,81.3,66.6,29.98,WSW,238,2.0,3.0,61,0.00,,,0.00,Wunderground v.1.15,2013-06-16 22:40:00,
2013-06-16 18:41:00,81.2,66.9,29.99,SW,219,1.0,3.0,62,0.00,,,0.00,Wunderground v.1.15,2013-06-16 22:41:00,
2013-06-16 18:42:00,81.2,66.9,29.99,SW,222,1.0,3.0,62,0.00,,,0.00,Wunderground v.1.15,2013-06-16 22:42:00,
2013-06-16 18:43:00,81.1,66.8,29.99,SW,218,2.0,3.0,62,0.00,,,0.00,Wunderground v.1.15,2013-06-16 22:43:00,
2013-06-16 18:45:00,81.0,67.2,29.99,SW,219,1.0,4.0,63,0.00,,,0.00,Wunderground v.1.15,2013-06-16 22:45:00,
2013-06-16 18:46:00,81.0,67.2,29.99,SW,219,0.0,4.0,63,0.00,,,0.00,Wunderground v.1.15,2013-06-16 22:46:00,
2013-06-16 18:47:00,80.9,67.6,29.99,SW,225,0.0,4.0,64,0.00,,,0.00,Wunderground v.1.15,2013-06-16 22:47:00,
2013-06-16 18:48:00,80.8,67.5,29.99,SSW,211,1.0,4.0,64,0.00,,,0.00,Wunderground v.1.15,2013-06-16 22:48:00,
2013-06-16 18:50:00,80.7,67.4,29.99,SW,232,1.0,2.0,64,0.00,,,0.00,Wunderground v.1.15,2013-06-16 22:50:00,
2013-06-16 18:51:00,80.6,66.8,29.99,SW,232,1.0,2.0,63,0.00,,,0.00,Wunderground v.1.15,2013-06-16 22:51:00,
2013-06-16 18:52:00,80.6,67.3,29.99,SW,228,0.0,2.0,64,0.00,,,0.00,Wunderground v.1.15,2013-06-16 22:52:00,
2013-06-16 18:54:00,80.5,67.2,29.98,WSW,245,1.0,2.0,64,0.00,,,0.00,Wunderground v.1.15,2013-06-16 22:54:00,
2013-06-16 18:56:00,80.4,67.1,29.98,SW,217,0.0,2.0,64,0.00,,,0.00,Wunderground v.1.15,2013-06-16 22:56:00,
2013-06-16 18:57:00,80.4,67.6,29.98,SW,219,1.0,2.0,65,0.00,,,0.00,Wunderground v.1.15,2013-06-16 22:57:00,
2013-06-16 18:59:00,80.3,67.5,29.98,SW,225,1.0,2.0,65,0.00,,,0.00,Wunderground v.1.15,2013-06-16 22:59:00,
2013-06-16 19:01:00,80.2,66.9,29.98,SW,235,1.0,2.0,64,0.00,,,0.00,Wunderground v.1.15,2013-06-16 23:01:00,
2013-06-16 19:02:00,80.2,67.4,29.98,SW,235,0.0,2.0,65,0.00,,,0.00,Wunderground v.1.15,2013-06-16 23:02:00,
2013-06-16 19:03:00,80.1,67.3,29.98,SW,232,2.0,2.0,65,0.00,,,0.00,Wunderground v.1.15,2013-06-16 23:03:00,
2013-06-16 19:04:00,80.0,67.6,29.98,SW,235,1.0,2.0,66,0.00,,,0.00,Wunderground v.1.15,2013-06-16 23:04:00,
2013-06-16 19:06:00,80.0,67.2,29.98,SW,235,0.0,2.0,65,0.00,,,0.00,Wunderground v.1.15,2013-06-16 23:06:00,
2013-06-16 19:07:00,79.9,67.5,29.98,WSW,245,1.0,2.0,66,0.00,,,0.00,Wunderground v.1.15,2013-06-16 23:07:00,
2013-06-16 19:08:00,79.9,67.1,29.98,SW,218,1.0,3.0,65,0.00,,,0.00,Wunderground v.1.15,2013-06-16 23:08:00,
2013-06-16 19:09:00,79.9,67.5,29.98,SW,218,1.0,3.0,66,0.00,,,0.00,Wunderground v.1.15,2013-06-16 23:09:00,
2013-06-16 19:11:00,79.8,67.4,29.98,SW,235,0.0,2.0,66,0.00,,,0.00,Wunderground v.1.15,2013-06-16 23:11:00,
2013-06-16 19:12:00,79.8,67.4,29.98,SW,235,0.0,2.0,66,0.00,,,0.00,Wunderground v.1.15,2013-06-16 23:12:00,
2013-06-16 19:13:00,79.8,67.4,29.98,SW,235,0.0,2.0,66,0.00,,,0.00,Wunderground v.1.15,2013-06-16 23:13:00,
2013-06-16 19:15:00,79.7,67.3,29.98,SW,235,1.0,2.0,66,0.00,,,0.00,Wunderground v.1.15,2013-06-16 23:15:00,
2013-06-16 19:16:00,79.7,67.8,29.98,SW,235,0.0,2.0,67,0.00,,,0.00,Wunderground v.1.15,2013-06-16 23:16:00,
2013-06-16 19:17:00,79.7,67.8,29.98,SW,235,0.0,2.0,67,0.00,,,0.00,Wunderground v.1.15,2013-06-16 23:17:00,
2013-06-16 19:18:00,79.7,67.8,29.98,SW,235,0.0,2.0,67,0.00,,,0.00,Wunderground v.1.15,2013-06-16 23:18:00,
2013-06-16 19:20:00,79.7,67.8,29.98,SW,235,1.0,1.0,67,0.00,,,0.00,Wunderground v.1.15,2013-06-16 23:20:00,
2013-06-16 19:22:00,79.6,68.1,29.98,SW,235,0.0,1.0,68,0.00,,,0.00,Wunderground v.1.15,2013-06-16 23:22:00,
2013-06-16 19:23:00,79.6,69.0,29.98,SW,235,0.0,1.0,70,0.00,,,0.00,Wunderground v.1.15,2013-06-16 23:23:00,
2013-06-16 19:24:00,79.6,69.0,29.98,SW,235,0.0,1.0,70,0.00,,,0.00,Wunderground v.1.15,2013-06-16 23:24:00,
2013-06-16 19:25:00,79.6,68.5,29.98,SW,235,0.0,1.0,69,0.00,,,0.00,Wunderground v.1.15,2013-06-16 23:25:00,
2013-06-16 19:27:00,79.5,68.0,29.98,SW,235,0.0,1.0,68,0.00,,,0.00,Wunderground v.1.15,2013-06-16 23:27:00,
2013-06-16 19:28:00,79.4,67.9,29.98,SW,235,0.0,1.0,68,0.00,,,0.00,Wunderground v.1.15,2013-06-16 23:28:00,
2013-06-16 19:29:00,79.4,68.3,29.98,SW,235,0.0,1.0,69,0.00,,,0.00,Wunderground v.1.15,2013-06-16 23:29:00,
2013-06-16 19:30:00,79.4,68.3,29.98,SW,236,0.0,0.0,69,0.00,,,0.00,Wunderground v.1.15,2013-06-16 23:30:00,
2013-06-16 19:32:00,79.3,68.2,29.98,SW,235,0.0,0.0,69,0.00,,,0.00,Wunderground v.1.15,2013-06-16 23:32:00,
2013-06-16 19:33:00,79.3,68.7,29.98,SW,235,0.0,0.0,70,0.00,,,0.00,Wunderground v.1.15,2013-06-16 23:33:00,
2013-06-16 19:34:00,79.1,67.6,29.98,SW,235,0.0,0.0,68,0.00,,,0.00,Wunderground v.1.15,2013-06-16 23:34:00,
2013-06-16 19:35:00,79.1,68.5,29.98,SW,235,0.0,1.0,70,0.00,,,0.00,Wunderground v.1.15,2013-06-16 23:35:00,
2013-06-16 19:37:00,79.0,68.0,29.98,SW,235,0.0,1.0,69,0.00,,,0.00,Wunderground v.1.15,2013-06-16 23:37:00,
2013-06-16 19:38:00,79.0,68.4,29.98,SW,235,0.0,1.0,70,0.00,,,0.00,Wunderground v.1.15,2013-06-16 23:38:00,
2013-06-16 19:40:00,78.9,68.7,29.98,SW,233,0.0,0.0,71,0.00,,,0.00,Wunderground v.1.15,2013-06-16 23:40:00,
2013-06-16 19:41:00,78.9,68.3,29.98,SW,235,0.0,0.0,70,0.00,,,0.00,Wunderground v.1.15,2013-06-16 23:41:00,
2013-06-16 19:42:00,78.8,69.0,29.98,SW,235,0.0,0.0,72,0.00,,,0.00,Wunderground v.1.15,2013-06-16 23:42:00,
2013-06-16 19:43:00,78.8,69.0,29.98,SW,235,0.0,0.0,72,0.00,,,0.00,Wunderground v.1.15,2013-06-16 23:43:00,
2013-06-16 19:45:00,78.6,68.4,29.98,SW,235,0.0,0.0,71,0.00,,,0.00,Wunderground v.1.15,2013-06-16 23:45:00,
2013-06-16 19:46:00,78.6,68.4,29.98,SW,235,0.0,0.0,71,0.00,,,0.00,Wunderground v.1.15,2013-06-16 23:46:00,
2013-06-16 19:48:00,78.5,69.1,29.98,SW,235,0.0,0.0,73,0.00,,,0.00,Wunderground v.1.15,2013-06-16 23:48:00,
2013-06-16 19:50:00,78.3,68.9,29.98,SW,235,0.0,0.0,73,0.00,,,0.00,Wunderground v.1.15,2013-06-16 23:50:00,
2013-06-16 19:51:00,78.2,69.2,29.98,SW,235,0.0,0.0,74,0.00,,,0.00,Wunderground v.1.15,2013-06-16 23:51:00,
2013-06-16 19:53:00,78.1,68.7,29.98,SW,235,0.0,0.0,73,0.00,,,0.00,Wunderground v.1.15,2013-06-16 23:53:00,
2013-06-16 19:54:00,78.0,68.6,29.98,SW,235,0.0,0.0,73,0.00,,,0.00,Wunderground v.1.15,2013-06-16 23:54:00,
2013-06-16 19:55:00,77.9,68.9,29.98,SW,235,0.0,0.0,74,0.00,,,0.00,Wunderground v.1.15,2013-06-16 23:55:00,
2013-06-16 19:56:00,77.8,68.8,29.98,SW,235,0.0,0.0,74,0.00,,,0.00,Wunderground v.1.15,2013-06-16 23:56:00,
2013-06-16 19:58:00,77.7,68.7,29.98,SW,235,0.0,0.0,74,0.00,,,0.00,Wunderground v.1.15,2013-06-16 23:58:00,
2013-06-16 19:59:00,77.6,68.7,29.98,SW,235,0.0,0.0,74,0.00,,,0.00,Wunderground v.1.15,2013-06-16 23:59:00,
2013-06-16 20:00:00,77.6,68.7,29.98,SW,235,0.0,0.0,74,0.00,,,0.00,Wunderground v.1.15,2013-06-17 00:00:00,
2013-06-16 20:01:00,77.4,68.5,29.98,SW,235,0.0,0.0,74,0.00,,,0.00,Wunderground v.1.15,2013-06-17 00:01:00,
2013-06-16 20:03:00,77.3,68.4,29.98,SW,235,0.0,0.0,74,0.00,,,0.00,Wunderground v.1.15,2013-06-17 00:03:00,
2013-06-16 20:04:00,77.2,68.3,29.98,SW,235,0.0,0.0,74,0.00,,,0.00,Wunderground v.1.15,2013-06-17 00:04:00,
2013-06-16 20:05:00,77.2,68.3,29.98,SW,235,0.0,0.0,74,0.00,,,0.00,Wunderground v.1.15,2013-06-17 00:05:00,
2013-06-16 20:07:00,77.1,68.2,29.98,SW,235,0.0,0.0,74,0.00,,,0.00,Wunderground v.1.15,2013-06-17 00:07:00,
2013-06-16 20:08:00,77.0,68.1,29.98,SW,235,0.0,0.0,74,0.00,,,0.00,Wunderground v.1.15,2013-06-17 00:08:00,
2013-06-16 20:10:00,76.9,68.4,29.98,SW,235,0.0,0.0,75,0.00,,,0.00,Wunderground v.1.15,2013-06-17 00:10:00,
2013-06-16 20:12:00,76.8,68.3,29.98,SW,235,0.0,0.0,75,0.00,,,0.00,Wunderground v.1.15,2013-06-17 00:12:00,
2013-06-16 20:14:00,76.7,68.6,29.98,SW,233,0.0,0.0,76,0.00,,,0.00,Wunderground v.1.15,2013-06-17 00:14:00,
2013-06-16 20:15:00,76.7,68.2,29.98,SW,235,0.0,0.0,75,0.00,,,0.00,Wunderground v.1.15,2013-06-17 00:15:00,
2013-06-16 20:17:00,76.5,68.0,29.98,SW,235,0.0,0.0,75,0.00,,,0.00,Wunderground v.1.15,2013-06-17 00:17:00,
2013-06-16 20:19:00,76.5,67.6,29.98,SW,235,0.0,0.0,74,0.00,,,0.00,Wunderground v.1.15,2013-06-17 00:19:00,
2013-06-16 20:20:00,76.4,67.5,29.98,SW,235,0.0,0.0,74,0.00,,,0.00,Wunderground v.1.15,2013-06-17 00:20:00,
2013-06-16 20:21:00,76.3,67.4,29.98,SW,235,0.0,0.0,74,0.00,,,0.00,Wunderground v.1.15,2013-06-17 00:21:00,
2013-06-16 20:23:00,76.2,67.7,29.98,SW,235,0.0,0.0,75,0.00,,,0.00,Wunderground v.1.15,2013-06-17 00:23:00,
2013-06-16 20:24:00,76.2,67.7,29.98,SW,235,0.0,0.0,75,0.00,,,0.00,Wunderground v.1.15,2013-06-17 00:24:00,
2013-06-16 20:25:00,76.1,67.6,29.98,SW,235,0.0,0.0,75,0.00,,,0.00,Wunderground v.1.15,2013-06-17 00:25:00,
2013-06-16 20:26:00,76.1,67.6,29.98,SW,235,0.0,0.0,75,0.00,,,0.00,Wunderground v.1.15,2013-06-17 00:26:00,
2013-06-16 20:28:00,76.0,67.9,29.98,SW,235,0.0,0.0,76,0.00,,,0.00,Wunderground v.1.15,2013-06-17 00:28:00,
2013-06-16 20:29:00,75.9,67.8,29.98,SW,235,0.0,0.0,76,0.00,,,0.00,Wunderground v.1.15,2013-06-17 00:29:00,
2013-06-16 20:30:00,75.8,67.7,29.98,SW,233,0.0,0.0,76,0.00,,,0.00,Wunderground v.1.15,2013-06-17 00:30:00,
2013-06-16 20:31:00,75.8,68.1,29.98,SW,235,0.0,0.0,77,0.00,,,0.00,Wunderground v.1.15,2013-06-17 00:31:00,
2013-06-16 20:34:00,75.6,67.5,29.98,SW,235,0.0,0.0,76,0.00,,,0.00,Wunderground v.1.15,2013-06-17 00:34:00,
2013-06-16 20:35:00,75.5,67.4,29.98,SW,235,0.0,0.0,76,0.00,,,0.00,Wunderground v.1.15,2013-06-17 00:35:00,
2013-06-16 20:36:00,75.4,67.3,29.98,SW,235,0.0,0.0,76,0.00,,,0.00,Wunderground v.1.15,2013-06-17 00:36:00,
2013-06-16 20:37:00,75.4,67.3,29.98,SW,235,0.0,0.0,76,0.00,,,0.00,Wunderground v.1.15,2013-06-17 00:37:00,
2013-06-16 20:39:00,75.3,67.6,29.98,SW,235,0.0,0.0,77,0.00,,,0.00,Wunderground v.1.15,2013-06-17 00:39:00,
2013-06-16 20:40:00,75.1,67.4,29.98,SW,235,0.0,0.0,77,0.00,,,0.00,Wunderground v.1.15,2013-06-17 00:40:00,
2013-06-16 20:41:00,75.1,67.4,29.98,SW,233,0.0,0.0,77,0.00,,,0.00,Wunderground v.1.15,2013-06-17 00:41:00,
2013-06-16 20:42:00,75.0,67.3,29.98,SW,235,0.0,0.0,77,0.00,,,0.00,Wunderground v.1.15,2013-06-17 00:42:00,
2013-06-16 20:44:00,74.9,67.2,29.98,SW,235,0.0,0.0,77,0.00,,,0.00,Wunderground v.1.15,2013-06-17 00:44:00,
2013-06-16 20:45:00,74.8,67.5,29.98,SW,235,0.0,0.0,78,0.00,,,0.00,Wunderground v.1.15,2013-06-17 00:45:00,
2013-06-16 20:46:00,74.8,67.5,29.98,SW,235,0.0,0.0,78,0.00,,,0.00,Wunderground v.1.15,2013-06-17 00:46:00,
2013-06-16 20:47:00,74.7,67.4,29.98,SW,235,0.0,0.0,78,0.00,,,0.00,Wunderground v.1.15,2013-06-17 00:47:00,
2013-06-16 20:49:00,74.6,67.7,29.98,SW,235,0.0,0.0,79,0.00,,,0.00,Wunderground v.1.15,2013-06-17 00:49:00,
2013-06-16 20:50:00,74.5,67.6,29.98,SW,235,0.0,0.0,79,0.00,,,0.00,Wunderground v.1.15,2013-06-17 00:50:00,
2013-06-16 20:51:00,74.5,67.6,29.98,SW,235,0.0,0.0,79,0.00,,,0.00,Wunderground v.1.15,2013-06-17 00:51:00,
2013-06-16 20:52:00,74.5,67.6,29.98,SW,235,0.0,0.0,79,0.00,,,0.00,Wunderground v.1.15,2013-06-17 00:52:00,
2013-06-16 20:55:00,74.4,67.8,29.98,SW,235,0.0,0.0,80,0.00,,,0.00,Wunderground v.1.15,2013-06-17 00:55:00,
2013-06-16 20:56:00,74.4,67.8,29.98,SW,235,0.0,0.0,80,0.00,,,0.00,Wunderground v.1.15,2013-06-17 00:56:00,
2013-06-16 20:57:00,74.3,67.7,29.98,SW,235,0.0,0.0,80,0.00,,,0.00,Wunderground v.1.15,2013-06-17 00:57:00,
2013-06-16 21:00:00,74.2,67.6,29.99,SW,233,0.0,0.0,80,0.00,,,0.00,Wunderground v.1.15,2013-06-17 01:00:00,
2013-06-16 21:01:00,74.2,67.6,29.99,SW,235,0.0,0.0,80,0.00,,,0.00,Wunderground v.1.15,2013-06-17 01:01:00,
2013-06-16 21:02:00,74.1,67.5,29.99,SW,235,0.0,0.0,80,0.00,,,0.00,Wunderground v.1.15,2013-06-17 01:02:00,
2013-06-16 21:05:00,74.0,67.4,29.99,SW,235,0.0,0.0,80,0.00,,,0.00,Wunderground v.1.15,2013-06-17 01:05:00,
2013-06-16 21:06:00,74.0,67.4,29.99,SW,235,0.0,0.0,80,0.00,,,0.00,Wunderground v.1.15,2013-06-17 01:06:00,
2013-06-16 21:07:00,73.9,67.0,29.99,SW,235,0.0,0.0,79,0.00,,,0.00,Wunderground v.1.15,2013-06-17 01:07:00,
2013-06-16 21:10:00,73.9,67.3,29.99,SW,235,0.0,0.0,80,0.00,,,0.00,Wunderground v.1.15,2013-06-17 01:10:00,
2013-06-16 21:11:00,73.9,67.3,29.99,SW,235,0.0,0.0,80,0.00,,,0.00,Wunderground v.1.15,2013-06-17 01:11:00,
2013-06-16 21:12:00,73.9,67.3,29.99,SW,235,0.0,0.0,80,0.00,,,0.00,Wunderground v.1.15,2013-06-17 01:12:00,
2013-06-16 21:15:00,73.9,67.0,29.99,SW,235,0.0,0.0,79,0.00,,,0.00,Wunderground v.1.15,2013-06-17 01:15:00,
2013-06-16 21:16:00,73.9,67.0,29.99,SW,235,0.0,0.0,79,0.00,,,0.00,Wunderground v.1.15,2013-06-17 01:16:00,
2013-06-16 21:17:00,73.9,66.6,29.99,SW,235,1.0,1.0,78,0.00,,,0.00,Wunderground v.1.15,2013-06-17 01:17:00,
2013-06-16 21:18:00,73.9,67.0,29.99,SW,235,0.0,1.0,79,0.00,,,0.00,Wunderground v.1.15,2013-06-17 01:18:00,
2013-06-16 21:20:00,74.2,66.9,29.99,SW,235,0.0,1.0,78,0.00,,,0.00,Wunderground v.1.15,2013-06-17 01:20:00,
2013-06-16 21:21:00,74.2,66.9,29.99,SW,235,0.0,1.0,78,0.00,,,0.00,Wunderground v.1.15,2013-06-17 01:21:00,
2013-06-16 21:22:00,74.3,67.0,29.99,SW,235,0.0,1.0,78,0.00,,,0.00,Wunderground v.1.15,2013-06-17 01:22:00,
2013-06-16 21:23:00,74.4,67.1,29.99,SW,235,0.0,1.0,78,0.00,,,0.00,Wunderground v.1.15,2013-06-17 01:23:00,
2013-06-16 21:24:00,74.4,67.1,29.99,SW,235,0.0,1.0,78,0.00,,,0.00,Wunderground v.1.15,2013-06-17 01:24:00,
2013-06-16 21:25:00,74.5,66.8,29.99,SW,235,0.0,1.0,77,0.00,,,0.00,Wunderground v.1.15,2013-06-17 01:25:00,
2013-06-16 21:26:00,74.5,67.2,29.99,SW,235,0.0,1.0,78,0.00,,,0.00,Wunderground v.1.15,2013-06-17 01:26:00,
2013-06-16 21:27:00,74.6,67.7,29.99,SW,235,0.0,1.0,79,0.00,,,0.00,Wunderground v.1.15,2013-06-17 01:27:00,
2013-06-16 21:28:00,74.6,67.7,29.99,SW,225,1.0,1.0,79,0.00,,,0.00,Wunderground v.1.15,2013-06-17 01:28:00,
2013-06-16 21:29:00,74.6,66.9,29.99,SW,225,1.0,2.0,77,0.00,,,0.00,Wunderground v.1.15,2013-06-17 01:29:00,
2013-06-16 21:30:00,74.7,67.0,29.99,SW,225,1.0,1.0,77,0.00,,,0.00,Wunderground v.1.15,2013-06-17 01:30:00,
2013-06-16 21:32:00,74.7,67.0,29.99,SW,225,0.0,1.0,77,0.00,,,0.00,Wunderground v.1.15,2013-06-17 01:32:00,
2013-06-16 21:33:00,74.8,67.5,29.99,SW,224,0.0,1.0,78,0.00,,,0.00,Wunderground v.1.15,2013-06-17 01:33:00,
2013-06-16 21:34:00,74.7,67.4,29.99,SW,225,0.0,1.0,78,0.00,,,0.00,Wunderground v.1.15,2013-06-17 01:34:00,
2013-06-16 21:36:00,74.7,67.0,29.99,SW,225,0.0,1.0,77,0.00,,,0.00,Wunderground v.1.15,2013-06-17 01:36:00,
2013-06-16 21:37:00,74.7,67.0,29.99,SW,225,0.0,1.0,77,0.00,,,0.00,Wunderground v.1.15,2013-06-17 01:37:00,
2013-06-16 21:38:00,74.7,67.4,29.99,SW,224,0.0,1.0,78,0.00,,,0.00,Wunderground v.1.15,2013-06-17 01:38:00,
2013-06-16 21:39:00,74.7,67.4,29.99,SW,225,0.0,1.0,78,0.00,,,0.00,Wunderground v.1.15,2013-06-17 01:39:00,
2013-06-16 21:42:00,74.6,67.3,29.99,SW,225,0.0,0.0,78,0.00,,,0.00,Wunderground v.1.15,2013-06-17 01:42:00,
2013-06-16 21:43:00,74.5,67.2,29.99,SW,225,0.0,0.0,78,0.00,,,0.00,Wunderground v.1.15,2013-06-17 01:43:00,
2013-06-16 21:44:00,74.5,67.2,29.99,SW,225,0.0,0.0,78,0.00,,,0.00,Wunderground v.1.15,2013-06-17 01:44:00,
2013-06-16 21:45:00,74.4,67.1,29.99,SW,225,0.0,0.0,78,0.00,,,0.00,Wunderground v.1.15,2013-06-17 01:45:00,
2013-06-16 21:47:00,74.3,67.4,29.99,SW,225,0.0,0.0,79,0.00,,,0.00,Wunderground v.1.15,2013-06-17 01:47:00,
2013-06-16 21:48:00,74.2,67.3,29.99,SW,225,0.0,1.0,79,0.00,,,0.00,Wunderground v.1.15,2013-06-17 01:48:00,
2013-06-16 21:49:00,74.2,67.3,29.99,SW,225,0.0,1.0,79,0.00,,,0.00,Wunderground v.1.15,2013-06-17 01:49:00,
2013-06-16 21:50:00,74.2,67.3,29.99,SW,225,0.0,0.0,79,0.00,,,0.00,Wunderground v.1.15,2013-06-17 01:50:00,
2013-06-16 21:52:00,74.1,67.5,29.99,SW,225,0.0,0.0,80,0.00,,,0.00,Wunderground v.1.15,2013-06-17 01:52:00,
2013-06-16 21:53:00,74.1,67.5,29.99,SW,225,0.0,0.0,80,0.00,,,0.00,Wunderground v.1.15,2013-06-17 01:53:00,
2013-06-16 21:54:00,74.1,67.2,29.99,SW,225,0.0,0.0,79,0.00,,,0.00,Wunderground v.1.15,2013-06-17 01:54:00,
2013-06-16 21:55:00,74.1,67.5,29.99,SW,225,0.0,0.0,80,0.00,,,0.00,Wunderground v.1.15,2013-06-17 01:55:00,
2013-06-16 21:57:00,74.1,66.8,29.99,SW,232,0.0,2.0,78,0.00,,,0.00,Wunderground v.1.15,2013-06-17 01:57:00,
2013-06-16 21:58:00,74.1,67.2,29.99,SW,216,1.0,2.0,79,0.00,,,0.00,Wunderground v.1.15,2013-06-17 01:58:00,
2013-06-16 21:59:00,74.2,66.9,29.99,SW,221,1.0,2.0,78,0.00,,,0.00,Wunderground v.1.15,2013-06-17 01:59:00,
2013-06-16 22:00:00,74.3,66.6,29.99,SW,221,0.0,0.0,77,0.00,,,0.00,Wunderground v.1.15,2013-06-17 02:00:00,
2013-06-16 22:02:00,74.5,66.8,29.99,SW,225,1.0,1.0,77,0.00,,,0.00,Wunderground v.1.15,2013-06-17 02:02:00,
2013-06-16 22:03:00,74.6,66.9,29.99,SW,225,0.0,1.0,77,0.00,,,0.00,Wunderground v.1.15,2013-06-17 02:03:00,
2013-06-16 22:04:00,74.7,67.0,29.99,SW,225,1.0,1.0,77,0.00,,,0.00,Wunderground v.1.15,2013-06-17 02:04:00,
2013-06-16 22:05:00,74.8,67.1,29.99,SW,225,0.0,1.0,77,0.00,,,0.00,Wunderground v.1.15,2013-06-17 02:05:00,
2013-06-16 22:06:00,74.8,66.7,29.99,SW,224,0.0,1.0,76,0.00,,,0.00,Wunderground v.1.15,2013-06-17 02:06:00,
2013-06-16 22:07:00,74.9,67.2,29.99,SW,223,0.0,1.0,77,0.00,,,0.00,Wunderground v.1.15,2013-06-17 02:07:00,
2013-06-16 22:08:00,74.9,67.2,29.99,SW,225,1.0,1.0,77,0.00,,,0.00,Wunderground v.1.15,2013-06-17 02:08:00,
2013-06-16 22:09:00,74.9,66.8,29.99,WSW,237,0.0,1.0,76,0.00,,,0.00,Wunderground v.1.15,2013-06-17 02:09:00,
2013-06-16 22:10:00,75.0,67.3,29.99,WSW,238,0.0,0.0,77,0.00,,,0.00,Wunderground v.1.15,2013-06-17 02:10:00,
2013-06-16 22:11:00,75.0,67.7,30.00,WSW,238,0.0,0.0,78,0.00,,,0.00,Wunderground v.1.15,2013-06-17 02:11:00,
2013-06-16 22:13:00,75.0,67.7,29.99,WSW,238,0.0,0.0,78,0.00,,,0.00,Wunderground v.1.15,2013-06-17 02:13:00,
2013-06-16 22:14:00,75.0,67.7,29.99,WSW,238,0.0,0.0,78,0.00,,,0.00,Wunderground v.1.15,2013-06-17 02:14:00,
2013-06-16 22:15:00,74.9,67.6,29.99,WSW,238,0.0,0.0,78,0.00,,,0.00,Wunderground v.1.15,2013-06-17 02:15:00,
2013-06-16 22:16:00,74.8,67.5,29.99,WSW,238,0.0,0.0,78,0.00,,,0.00,Wunderground v.1.15,2013-06-17 02:16:00,
2013-06-16 22:18:00,74.7,67.0,29.99,WSW,238,0.0,0.0,77,0.00,,,0.00,Wunderground v.1.15,2013-06-17 02:18:00,
2013-06-16 22:19:00,74.7,67.0,29.99,WSW,238,0.0,0.0,77,0.00,,,0.00,Wunderground v.1.15,2013-06-17 02:19:00,
2013-06-16 22:20:00,74.5,66.8,29.99,WSW,238,0.0,1.0,77,0.00,,,0.00,Wunderground v.1.15,2013-06-17 02:20:00,
2013-06-16 22:21:00,74.6,66.9,29.99,WSW,238,0.0,1.0,77,0.00,,,0.00,Wunderground v.1.15,2013-06-17 02:21:00,
2013-06-16 22:23:00,74.5,67.2,29.99,WSW,238,0.0,1.0,78,0.00,,,0.00,Wunderground v.1.15,2013-06-17 02:23:00,
2013-06-16 22:24:00,74.5,67.2,29.99,WSW,238,0.0,1.0,78,0.00,,,0.00,Wunderground v.1.15,2013-06-17 02:24:00,
2013-06-16 22:25:00,74.5,67.2,29.99,WSW,238,0.0,1.0,78,0.00,,,0.00,Wunderground v.1.15,2013-06-17 02:25:00,
2013-06-16 22:26:00,74.4,66.7,29.99,WSW,238,0.0,1.0,77,0.00,,,0.00,Wunderground v.1.15,2013-06-17 02:26:00,
2013-06-16 22:28:00,74.4,67.1,29.99,WSW,238,0.0,1.0,78,0.00,,,0.00,Wunderground v.1.15,2013-06-17 02:28:00,
2013-06-16 22:29:00,74.4,67.1,29.99,WSW,237,0.0,1.0,78,0.00,,,0.00,Wunderground v.1.15,2013-06-17 02:29:00,
2013-06-16 22:31:00,74.4,67.1,29.99,WSW,238,0.0,0.0,78,0.00,,,0.00,Wunderground v.1.15,2013-06-17 02:31:00,
2013-06-16 22:32:00,74.4,67.1,30.00,WSW,237,0.0,0.0,78,0.00,,,0.00,Wunderground v.1.15,2013-06-17 02:32:00,
2013-06-16 22:34:00,74.3,67.0,30.00,WSW,238,0.0,0.0,78,0.00,,,0.00,Wunderground v.1.15,2013-06-17 02:34:00,
2013-06-16 22:35:00,74.3,67.0,30.00,WSW,237,0.0,0.0,78,0.00,,,0.00,Wunderground v.1.15,2013-06-17 02:35:00,
2013-06-16 22:36:00,74.3,67.0,30.00,WSW,238,0.0,1.0,78,0.00,,,0.00,Wunderground v.1.15,2013-06-17 02:36:00,
2013-06-16 22:37:00,74.3,67.0,30.00,WSW,238,0.0,1.0,78,0.00,,,0.00,Wunderground v.1.15,2013-06-17 02:37:00,
2013-06-16 22:39:00,74.3,67.0,30.00,WSW,238,0.0,1.0,78,0.00,,,0.00,Wunderground v.1.15,2013-06-17 02:39:00,
2013-06-16 22:40:00,74.2,66.9,30.00,WSW,238,0.0,0.0,78,0.00,,,0.00,Wunderground v.1.15,2013-06-17 02:40:00,
2013-06-16 22:41:00,74.3,67.0,30.00,WSW,238,0.0,0.0,78,0.00,,,0.00,Wunderground v.1.15,2013-06-17 02:41:00,
2013-06-16 22:42:00,74.3,67.0,30.00,SW,229,0.0,0.0,78,0.00,,,0.00,Wunderground v.1.15,2013-06-17 02:42:00,
2013-06-16 22:45:00,74.4,67.1,30.00,SW,218,1.0,1.0,78,0.00,,,0.00,Wunderground v.1.15,2013-06-17 02:45:00,
2013-06-16 22:46:00,74.4,66.7,30.00,SW,218,0.0,2.0,77,0.00,,,0.00,Wunderground v.1.15,2013-06-17 02:46:00,
2013-06-16 22:48:00,74.5,67.2,30.00,SW,218,0.0,2.0,78,0.00,,,0.00,Wunderground v.1.15,2013-06-17 02:48:00,
2013-06-16 22:50:00,74.5,67.2,30.00,SW,218,0.0,0.0,78,0.00,,,0.00,Wunderground v.1.15,2013-06-17 02:50:00,
2013-06-16 22:51:00,74.5,67.2,30.00,SW,218,0.0,0.0,78,0.00,,,0.00,Wunderground v.1.15,2013-06-17 02:51:00,
2013-06-16 22:52:00,74.4,67.5,30.00,SW,218,0.0,0.0,79,0.00,,,0.00,Wunderground v.1.15,2013-06-17 02:52:00,
2013-06-16 22:53:00,74.4,67.5,30.00,SW,218,0.0,0.0,79,0.00,,,0.00,Wunderground v.1.15,2013-06-17 02:53:00,
2013-06-16 22:55:00,74.2,67.3,30.00,SW,218,0.0,0.0,79,0.00,,,0.00,Wunderground v.1.15,2013-06-17 02:55:00,
2013-06-16 22:56:00,74.2,67.3,30.00,SW,218,0.0,0.0,79,0.00,,,0.00,Wunderground v.1.15,2013-06-17 02:56:00,
2013-06-16 22:57:00,74.1,67.2,30.00,SW,218,0.0,0.0,79,0.00,,,0.00,Wunderground v.1.15,2013-06-17 02:57:00,
2013-06-16 22:58:00,74.0,67.1,30.00,SW,218,0.0,0.0,79,0.00,,,0.00,Wunderground v.1.15,2013-06-17 02:58:00,
2013-06-16 23:00:00,73.9,67.0,30.01,SW,218,0.0,0.0,79,0.00,,,0.00,Wunderground v.1.15,2013-06-17 03:00:00,
2013-06-16 23:01:00,73.8,66.9,30.00,SW,218,0.0,0.0,79,0.00,,,0.00,Wunderground v.1.15,2013-06-17 03:01:00,
2013-06-16 23:02:00,73.8,66.9,30.00,SW,218,0.0,0.0,79,0.00,,,0.00,Wunderground v.1.15,2013-06-17 03:02:00,
2013-06-16 23:03:00,73.7,66.8,30.01,SW,218,0.0,0.0,79,0.00,,,0.00,Wunderground v.1.15,2013-06-17 03:03:00,
2013-06-16 23:05:00,73.6,66.7,30.00,SW,218,0.0,0.0,79,0.00,,,0.00,Wunderground v.1.15,2013-06-17 03:05:00,
2013-06-16 23:06:00,73.6,67.0,30.00,SW,218,0.0,0.0,80,0.00,,,0.00,Wunderground v.1.15,2013-06-17 03:06:00,
2013-06-16 23:07:00,73.6,66.7,30.00,SW,218,0.0,0.0,79,0.00,,,0.00,Wunderground v.1.15,2013-06-17 03:07:00,
2013-06-16 23:08:00,73.6,66.7,30.00,WSW,239,0.0,0.0,79,0.00,,,0.00,Wunderground v.1.15,2013-06-17 03:08:00,
2013-06-16 23:11:00,73.8,67.2,30.00,WSW,239,0.0,0.0,80,0.00,,,0.00,Wunderground v.1.15,2013-06-17 03:11:00,
2013-06-16 23:12:00,73.8,66.9,30.00,WSW,239,0.0,0.0,79,0.00,,,0.00,Wunderground v.1.15,2013-06-17 03:12:00,
2013-06-16 23:13:00,73.8,66.9,30.00,WSW,239,0.0,0.0,79,0.00,,,0.00,Wunderground v.1.15,2013-06-17 03:13:00,
2013-06-16 23:14:00,73.9,67.0,30.00,WSW,239,0.0,0.0,79,0.00,,,0.00,Wunderground v.1.15,2013-06-17 03:14:00,
2013-06-16 23:16:00,74.1,66.8,30.00,WSW,238,0.0,0.0,78,0.00,,,0.00,Wunderground v.1.15,2013-06-17 03:16:00,
2013-06-16 23:17:00,74.1,66.8,30.00,SW,232,0.0,0.0,78,0.00,,,0.00,Wunderground v.1.15,2013-06-17 03:17:00,
2013-06-16 23:18:00,74.2,66.9,30.00,SW,229,0.0,0.0,78,0.00,,,0.00,Wunderground v.1.15,2013-06-17 03:18:00,
2013-06-16 23:19:00,74.2,66.9,30.00,WSW,238,1.0,1.0,78,0.00,,,0.00,Wunderground v.1.15,2013-06-17 03:19:00,
2013-06-16 23:21:00,74.3,67.0,30.00,WSW,238,1.0,1.0,78,0.00,,,0.00,Wunderground v.1.15,2013-06-17 03:21:00,
2013-06-16 23:22:00,74.3,67.0,30.00,WSW,237,0.0,1.0,78,0.00,,,0.00,Wunderground v.1.15,2013-06-17 03:22:00,
2013-06-16 23:23:00,74.3,67.0,30.00,WSW,238,0.0,1.0,78,0.00,,,0.00,Wunderground v.1.15,2013-06-17 03:23:00,
2013-06-16 23:24:00,74.4,67.1,30.00,WSW,238,0.0,1.0,78,0.00,,,0.00,Wunderground v.1.15,2013-06-17 03:24:00,
2013-06-16 23:26:00,74.4,67.1,30.00,WSW,237,0.0,1.0,78,0.00,,,0.00,Wunderground v.1.15,2013-06-17 03:26:00,
2013-06-16 23:27:00,74.4,67.1,30.00,WSW,238,0.0,1.0,78,0.00,,,0.00,Wunderground v.1.15,2013-06-17 03:27:00,
2013-06-16 23:29:00,74.4,67.1,30.00,WSW,237,0.0,1.0,78,0.00,,,0.00,Wunderground v.1.15,2013-06-17 03:29:00,
2013-06-16 23:31:00,74.4,67.1,30.00,WSW,238,0.0,0.0,78,0.00,,,0.00,Wunderground v.1.15,2013-06-17 03:31:00,
2013-06-16 23:32:00,74.3,67.0,30.00,WSW,238,0.0,0.0,78,0.00,,,0.00,Wunderground v.1.15,2013-06-17 03:32:00,
2013-06-16 23:33:00,74.3,67.0,30.00,WSW,238,0.0,0.0,78,0.00,,,0.00,Wunderground v.1.15,2013-06-17 03:33:00,
2013-06-16 23:34:00,74.3,67.0,30.00,WSW,238,0.0,0.0,78,0.00,,,0.00,Wunderground v.1.15,2013-06-17 03:34:00,
2013-06-16 23:36:00,74.3,67.4,30.00,WSW,237,0.0,0.0,79,0.00,,,0.00,Wunderground v.1.15,2013-06-17 03:36:00,
2013-06-16 23:38:00,74.2,67.3,30.00,WSW,238,0.0,0.0,79,0.00,,,0.00,Wunderground v.1.15,2013-06-17 03:38:00,
2013-06-16 23:39:00,74.2,67.3,30.00,WSW,238,0.0,0.0,79,0.00,,,0.00,Wunderground v.1.15,2013-06-17 03:39:00,
2013-06-16 23:40:00,74.1,67.2,30.00,WSW,238,0.0,0.0,79,0.00,,,0.00,Wunderground v.1.15,2013-06-17 03:40:00,
2013-06-16 23:41:00,74.1,67.2,30.00,WSW,238,0.0,0.0,79,0.00,,,0.00,Wunderground v.1.15,2013-06-17 03:41:00,
2013-06-16 23:43:00,74.0,67.1,30.00,WSW,237,0.0,0.0,79,0.00,,,0.00,Wunderground v.1.15,2013-06-17 03:43:00,
2013-06-16 23:44:00,74.0,67.1,30.00,WSW,238,0.0,0.0,79,0.00,,,0.00,Wunderground v.1.15,2013-06-17 03:44:00,
2013-06-16 23:45:00,74.0,67.1,30.00,WSW,238,0.0,0.0,79,0.00,,,0.00,Wunderground v.1.15,2013-06-17 03:45:00,
2013-06-16 23:47:00,73.9,67.0,30.00,WSW,238,0.0,0.0,79,0.00,,,0.00,Wunderground v.1.15,2013-06-17 03:47:00,
2013-06-16 23:48:00,73.9,67.3,30.00,WSW,238,0.0,0.0,80,0.00,,,0.00,Wunderground v.1.15,2013-06-17 03:48:00,
2013-06-16 23:49:00,73.9,67.3,30.00,WSW,238,0.0,0.0,80,0.00,,,0.00,Wunderground v.1.15,2013-06-17 03:49:00,
2013-06-16 23:50:00,73.8,67.2,30.00,WSW,238,0.0,0.0,80,0.00,,,0.00,Wunderground v.1.15,2013-06-17 03:50:00,
2013-06-16 23:52:00,73.8,67.2,30.00,WSW,238,0.0,0.0,80,0.00,,,0.00,Wunderground v.1.15,2013-06-17 03:52:00,
2013-06-16 23:53:00,73.8,67.2,30.00,WSW,238,0.0,0.0,80,0.00,,,0.00,Wunderground v.1.15,2013-06-17 03:53:00,
2013-06-16 23:54:00,73.7,67.1,30.00,WSW,238,0.0,0.0,80,0.00,,,0.00,Wunderground v.1.15,2013-06-17 03:54:00,
2013-06-16 23:55:00,73.7,67.1,30.00,WSW,238,0.0,0.0,80,0.00,,,0.00,Wunderground v.1.15,2013-06-17 03:55:00,
2013-06-16 23:57:00,73.7,67.5,30.00,WSW,238,0.0,0.0,81,0.00,,,0.00,Wunderground v.1.15,2013-06-17 03:57:00,
2013-06-16 23:58:00,73.6,67.0,30.00,WSW,238,0.0,0.0,80,0.00,,,0.00,Wunderground v.1.15,2013-06-17 03:58:00,